GEFSSGP_con_maxscp_150.txt.gz
SCP
0 0 0 0 0 0 0 0 0 1 1 1 2 3 3 2 2 1 1 1 1 2 2 2 2 2 2 2 2 1 1 1 1 1 1 1 2 2 1 1 1 1 1 1 1 1 1 1 1
0 0 0 0 0 0 0 0 1 1 1 2 2 3 3 2 1 1 1 1 1 2 2 2 2 2 2 2 2 1 1 1 1 1 1 1 1 2 1 1 1 1 1 1 1 1 1 1 1
0 0 0 0 -0 0 0 1 1 2 2 2 3 3 2 2 1 1 1 1 1 2 2 2 2 2 2 2 2 2 2 1 1 1 1 1 1 1 1 1 1 1 1 1 1 1 1 1 1
0 0 0 0 0 0 0 1 2 2 2 3 4 3 2 2 1 1 1 1 2 2 2 2 2 2 2 2 2 2 2 2 2 1 1 1 1 1 1 1 1 1 1 1 1 1 1 1 1
0 0 0 0 0 0 1 1 2 3 3 3 4 3 3 2 1 1 1 2 2 1 1 2 2 2 2 2 2 2 2 2 2 2 1 1 1 1 1 1 1 1 1 1 1 1 1 1 1
0 0 0 0 0 1 1 2 3 3 3 4 4 4 3 2 2 2 2 2 2 1 1 2 2 2 2 2 2 2 2 2 2 2 1 1 1 1 1 1 1 1 1 1 1 1 1 1 1
0 0 0 0 0 1 1 2 3 4 4 5 5 5 4 3 3 2 2 2 1 1 1 1 2 2 2 2 2 2 2 2 2 2 1 1 1 1 1 1 1 1 1 1 1 1 1 1 1
0 0 0 0 1 1 2 3 4 4 4 5 5 5 4 4 3 3 2 2 2 1 1 1 1 1 1 1 2 2 2 2 2 1 1 1 1 1 1 1 1 1 1 1 1 1 1 1 1
0 0 0 0 1 2 3 4 4 4 4 5 5 5 4 4 3 3 3 3 2 2 1 1 1 1 1 1 1 2 2 2 1 1 1 1 1 1 1 1 1 1 1 1 1 1 1 1 1
0 0 0 1 1 3 3 4 4 4 4 5 5 5 4 4 4 4 4 4 3 2 2 1 1 1 1 1 1 2 2 1 1 1 1 1 1 1 1 1 2 1 1 1 1 1 1 1 1
0 0 1 2 2 3 3 3 3 4 4 4 4 4 4 4 5 5 5 4 3 3 2 2 1 1 1 2 2 2 2 1 1 1 1 1 1 1 1 1 1 1 1 1 1 1 1 1 1
0 1 2 2 2 2 3 3 4 4 3 3 4 4 5 5 6 6 5 4 3 3 2 2 1 1 2 2 2 2 2 1 1 1 1 1 1 1 1 1 1 1 1 1 1 1 1 1 1
0 1 2 2 2 2 3 3 4 3 3 3 4 5 6 6 6 5 5 4 3 2 2 2 2 2 2 2 2 2 2 2 1 1 1 1 1 1 1 1 1 1 1 1 1 1 1 1 1
1 1 1 1 1 2 3 3 3 3 3 4 5 5 5 5 5 5 5 4 3 3 2 2 2 2 2 2 2 2 2 2 2 2 2 1 1 1 1 1 1 1 1 1 1 1 1 1 1
1 1 1 1 1 2 3 3 3 3 4 6 6 5 5 5 5 5 5 4 3 3 3 3 2 2 1 1 2 2 2 2 2 2 2 2 2 1 1 1 1 1 1 1 1 1 1 1 1
1 1 1 1 1 1 2 2 3 4 6 8 8 6 5 4 4 4 4 4 4 3 3 3 2 2 1 1 2 2 2 2 2 3 3 3 2 2 1 1 1 1 1 1 1 1 1 1 1
1 1 0 0 0 1 2 2 3 4 7 9 8 6 4 4 3 3 4 4 4 3 3 2 2 2 1 2 2 2 2 2 3 3 3 3 2 2 1 1 1 1 1 1 1 1 1 1 0
1 0 0 0 0 1 1 2 3 4 7 8 7 5 3 3 3 4 4 4 4 3 3 2 2 1 1 1 1 2 2 2 3 3 3 3 2 2 2 1 1 1 1 1 1 1 1 1 0
0 0 0 0 0 1 1 2 3 4 5 5 5 4 3 3 4 4 4 3 3 3 3 2 1 1 1 1 1 1 2 2 2 3 2 2 2 2 2 2 1 1 1 1 1 1 1 1 0
0 0 0 0 1 1 2 3 4 5 5 4 3 3 4 4 5 4 3 3 4 3 3 2 1 1 1 1 1 1 1 2 2 2 1 1 1 1 1 1 1 1 1 1 1 1 1 1 1
0 0 0 1 1 1 2 3 4 4 5 4 3 4 5 6 5 4 3 4 4 4 2 1 1 1 1 1 1 1 1 1 1 1 1 0 0 0 1 1 1 1 1 1 1 1 1 1 1
0 0 0 0 1 1 1 2 3 4 4 4 3 4 5 6 5 5 5 5 4 4 2 1 1 1 1 1 1 1 1 1 1 0 0 0 0 0 0 0 0 0 0 0 0 1 1 1 1
0 0 0 0 0 0 0 1 2 3 4 4 3 3 5 6 6 7 6 5 4 3 2 2 2 1 1 1 1 1 1 1 1 1 1 0 0 0 0 0 0 0 0 0 0 0 0 0 0
0 0 0 0 0 0 0 0 1 2 3 3 3 3 4 7 8 8 7 5 4 3 3 2 2 2 1 1 1 0 0 1 1 1 1 1 1 0 0 0 0 0 0 0 0 0 0 0 0
0 0 0 0 0 0 0 0 1 2 3 3 3 3 5 7 8 7 5 4 3 3 3 3 2 2 2 1 1 1 0 1 1 2 2 2 1 0 0 0 0 0 0 0 0 0 0 0 0
0 0 0 0 0 0 0 1 1 1 2 3 3 4 5 6 6 5 3 3 3 3 3 2 2 2 2 2 1 1 1 1 2 2 3 2 1 1 0 0 0 0 0 0 0 0 0 0 0
0 0 0 0 0 0 0 1 1 1 2 3 3 4 5 5 4 3 3 3 3 2 2 1 1 1 1 1 1 1 1 2 2 3 4 3 2 1 0 0 0 0 0 0 0 0 0 0 0
0 0 0 0 0 0 0 0 1 1 2 3 4 4 5 4 3 3 2 3 2 2 1 1 1 0 0 1 1 1 1 2 3 4 5 4 2 0 0 0 0 0 0 0 0 0 0 0 0
0 0 0 0 0 0 0 0 1 1 2 2 3 3 4 4 4 3 3 3 2 2 1 1 0 0 0 0 0 0 1 2 4 5 5 3 1 0 0 0 0 0 0 0 0 0 0 0 0
0 0 0 0 0 0 0 0 1 1 2 2 2 2 3 4 4 4 3 3 2 2 1 1 0 0 0 0 0 0 0 2 5 6 4 2 1 0 0 0 0 0 0 0 0 0 0 0 0

GEFSSGP_con_maxscp_156.txt.gz
SCP
0 0 0 0 0 0 0 0 0 0 1 1 1 1 2 1 1 1 1 1 2 2 2 2 2 1 1 2 2 2 2 2 2 2 2 2 2 2 2 2 2 2 2 2 2 2 2 2 2
0 0 0 0 0 0 0 0 0 1 1 1 2 2 2 2 1 1 1 2 2 2 2 2 2 2 2 2 2 2 2 2 2 2 2 2 2 2 2 2 2 2 2 2 2 2 2 2 2
0 0 0 0 0 0 0 0 1 1 1 1 2 2 2 2 1 1 2 2 2 2 2 3 3 2 2 2 2 2 2 3 3 3 2 2 2 2 2 2 2 2 2 2 2 2 2 2 2
0 0 0 0 0 0 0 1 1 1 1 1 2 2 2 1 1 1 2 2 2 2 2 3 3 3 2 2 2 3 2 2 2 2 2 2 2 2 2 2 2 2 2 2 2 2 2 2 2
0 0 0 0 0 0 1 1 1 2 2 2 2 2 2 1 1 2 2 2 2 2 2 3 3 3 3 3 3 3 3 3 2 2 2 2 2 2 2 2 2 2 2 1 1 1 1 2 2
0 0 0 0 1 1 1 1 2 2 2 2 2 2 2 2 2 2 2 2 2 2 2 3 3 3 3 3 3 3 3 3 3 2 2 2 2 2 2 2 2 2 2 2 2 2 2 2 2
0 0 0 0 1 1 1 2 2 2 2 2 3 3 2 2 2 2 2 2 1 1 2 2 3 3 3 3 3 4 3 3 3 2 2 2 2 2 2 2 2 2 2 3 2 2 3 3 3
0 0 0 0 1 1 1 2 2 2 2 2 2 2 2 2 2 2 2 2 1 1 1 1 2 2 2 3 3 4 3 3 2 2 2 2 2 2 2 2 2 3 3 3 3 3 3 3 3
0 0 0 0 1 1 1 2 2 2 2 2 2 2 2 2 2 3 3 2 2 1 1 1 1 1 2 2 2 3 3 2 2 2 2 1 1 1 1 2 2 3 3 3 3 3 3 3 2
0 0 1 1 1 1 1 2 2 2 2 2 2 2 2 3 3 3 3 2 2 2 1 1 1 2 2 2 2 2 2 2 2 2 1 1 1 1 1 1 2 2 2 2 2 2 2 2 2
1 1 1 1 1 2 2 2 2 2 2 2 2 3 3 3 3 2 2 2 2 1 1 1 1 2 4 4 3 2 1 2 2 2 2 1 1 1 1 1 1 1 1 1 2 2 1 1 2
1 1 2 2 2 2 2 3 3 3 2 2 2 3 4 4 3 2 2 2 2 1 1 1 1 2 4 4 3 2 2 2 2 2 2 2 1 1 1 1 1 2 1 1 1 1 1 1 2
1 1 2 2 2 2 3 3 4 3 3 3 3 4 5 4 3 3 3 3 2 2 1 1 1 2 2 3 3 2 2 2 2 2 2 2 1 1 1 1 2 2 2 1 1 1 1 1 1
1 1 1 2 2 2 3 4 4 4 3 4 4 5 5 4 4 3 3 2 2 1 1 1 1 1 2 2 2 2 2 1 1 2 2 2 2 2 2 2 2 2 2 2 1 1 1 1 1
1 1 1 2 2 2 3 4 4 3 3 4 5 6 5 5 4 3 2 2 1 1 1 1 1 1 1 1 2 2 1 1 1 1 1 1 2 2 2 2 2 2 2 1 1 1 1 1 1
1 1 1 2 2 2 3 4 4 3 4 5 6 6 5 4 4 3 2 1 1 1 1 1 1 1 1 1 1 1 1 1 1 1 1 1 1 2 2 2 2 2 2 1 1 1 1 1 1
1 1 1 1 2 2 3 3 3 3 3 4 5 5 5 4 4 3 2 2 2 2 2 2 1 1 1 1 1 1 1 1 1 1 1 1 2 2 2 2 1 1 1 1 1 1 1 1 1
0 0 1 1 2 2 3 3 2 2 2 3 4 5 5 4 4 3 3 3 3 2 2 2 2 1 1 1 1 1 0 0 1 1 2 2 2 2 2 1 1 1 1 1 1 1 1 1 1
0 0 1 1 1 2 2 2 2 2 2 3 4 4 4 4 3 2 2 3 3 3 2 2 2 1 1 1 0 0 0 0 0 1 1 2 2 2 1 1 1 1 1 1 1 1 1 1 1
0 0 0 1 1 2 2 2 3 3 2 3 3 3 3 3 2 2 2 3 3 3 3 2 2 1 1 1 1 0 0 0 0 0 0 1 1 1 1 0 0 0 0 0 1 1 1 1 1
0 0 0 0 1 1 2 2 2 2 2 2 2 2 2 2 2 3 3 3 3 3 3 2 1 1 1 1 1 1 0 0 0 0 0 0 1 0 0 0 0 0 0 0 0 1 1 0 0
0 0 0 0 0 1 1 1 2 2 2 2 2 2 2 3 3 3 3 2 3 3 3 2 1 1 1 1 1 1 0 0 0 0 0 0 0 0 0 0 0 0 0 0 0 0 0 0 0
0 0 0 0 0 0 1 1 1 2 2 2 2 2 3 3 3 3 3 3 3 3 3 2 1 1 2 2 1 1 0 0 0 0 0 0 0 0 0 0 0 0 0 0 0 0 0 0 0
0 0 0 0 0 0 0 0 1 1 2 2 2 2 2 3 3 3 3 3 3 2 2 1 1 1 1 1 1 1 0 0 0 0 0 0 0 0 0 0 0 0 0 0 0 0 0 0 0
0 0 0 0 0 0 0 0 0 1 1 2 2 2 2 2 3 3 2 2 2 1 1 1 0 0 0 1 1 0 0 0 0 0 0 0 0 0 0 0 0 0 0 0 0 0 0 0 0
0 0 0 0 0 0 0 0 0 1 1 1 2 2 2 2 3 2 1 1 1 1 1 1 0 0 0 0 0 0 0 0 0 0 0 0 0 0 0 0 0 0 0 0 0 0 0 0 0
0 0 0 0 0 0 0 0 0 1 1 1 1 2 2 2 2 2 1 1 1 1 1 1 0 0 0 0 0 0 0 0 0 0 0 0 0 0 0 0 0 0 0 0 0 0 0 0 0
0 0 0 0 0 0 0 0 0 1 1 1 1 2 2 3 3 2 1 1 1 1 1 1 0 0 0 0 0 0 0 0 0 0 0 0 0 0 0 0 0 0 0 0 0 0 0 0 0
0 0 0 0 0 0 0 0 0 0 1 1 1 1 2 3 3 3 2 2 1 1 1 1 0 0 0 0 0 0 0 0 0 0 0 0 0 0 0 0 0 0 0 0 0 0 0 0 0
0 0 0 0 0 0 0 0 0 0 0 1 1 1 2 3 3 3 3 3 2 2 2 1 1 0 0 0 0 0 0 0 0 0 0 0 0 0 0 0 0 0 0 0 0 0 0 0 0

GEFSSGP_con_maxscp_162.txt.gz
SCP
0 0 0 0 0 0 0 0 1 1 1 1 1 1 1 1 1 1 1 2 2 1 1 1 1 1 1 1 1 2 2 2 1 1 1 1 1 1 1 1 1 1 0 0 0 0 0 0 0
0 0 0 0 0 0 0 1 1 1 1 1 1 1 1 1 1 1 2 2 2 1 1 1 1 1 1 1 1 1 1 1 1 1 1 1 1 1 1 1 1 1 0 0 0 0 0 0 0
0 0 0 0 0 0 1 1 1 1 1 1 1 1 1 1 1 1 2 2 2 1 1 1 1 1 1 1 1 1 1 1 1 1 1 1 1 1 1 1 1 1 0 0 0 0 0 0 0
0 0 0 0 0 1 1 1 1 1 1 1 1 1 1 1 1 2 2 2 2 1 1 1 1 1 1 1 1 1 1 1 1 1 1 1 1 1 1 1 1 1 1 1 0 1 1 1 1
0 0 0 0 0 1 1 1 1 1 1 1 1 1 1 2 2 2 2 2 1 1 1 1 2 2 1 1 1 1 1 1 1 1 1 1 1 1 1 1 1 1 1 1 1 1 1 1 1
0 0 0 0 1 1 1 1 1 1 1 1 1 1 2 2 2 2 2 2 1 1 1 1 2 2 1 1 1 1 1 1 1 1 1 1 1 1 1 1 1 1 1 1 1 1 1 1 1
0 0 0 0 1 1 1 1 1 1 1 1 1 1 2 2 3 2 2 2 1 1 1 1 2 2 1 2 2 2 1 1 1 1 1 1 1 1 1 1 1 1 1 1 1 1 1 1 1
0 0 0 0 1 1 1 1 1 2 2 2 2 2 2 3 3 2 2 2 1 1 1 1 1 1 1 1 1 1 1 1 1 1 1 1 1 1 1 1 1 1 1 1 1 1 1 1 1
0 0 0 0 1 1 1 1 2 2 2 2 2 2 3 3 3 2 2 2 1 1 1 1 1 1 1 1 1 1 1 1 1 1 1 1 1 1 1 1 1 1 1 1 1 1 1 1 1
0 0 0 1 1 1 1 1 2 2 2 2 2 3 3 3 3 2 2 2 2 2 1 1 1 1 1 1 1 1 1 1 1 1 1 1 1 1 2 2 2 1 1 1 1 1 1 1 1
0 0 1 1 1 1 1 2 2 2 2 2 2 3 3 3 3 2 2 2 2 2 1 1 1 1 1 1 1 2 2 2 2 2 2 2 2 2 2 2 2 2 2 2 1 1 1 1 1
1 1 1 1 2 2 2 2 3 2 2 2 2 3 3 3 3 3 3 3 2 2 2 2 2 2 2 2 2 2 3 3 3 3 2 2 2 2 3 3 2 2 2 2 2 2 2 1 1
1 1 1 2 2 2 2 3 3 3 2 2 3 3 3 3 3 3 4 3 3 2 2 2 2 2 2 2 3 4 4 4 4 3 3 2 3 3 3 3 3 3 2 2 3 3 2 2 1
1 1 1 1 2 2 2 3 3 3 2 3 3 3 3 3 3 4 5 5 4 3 2 2 3 3 3 3 3 4 5 5 4 4 3 3 3 3 4 4 4 3 3 3 3 3 2 2 2
1 1 1 1 1 2 2 2 3 3 2 3 3 3 3 3 3 5 6 6 4 3 3 2 2 2 3 3 4 4 5 4 4 4 3 3 3 3 4 4 4 4 3 3 3 3 3 2 2
0 1 1 1 1 1 1 2 2 2 3 3 4 4 3 3 4 5 5 5 5 4 3 3 2 2 3 4 4 4 4 4 4 4 3 3 2 3 3 4 4 5 5 4 3 3 3 3 2
0 0 1 1 1 1 1 1 2 2 3 3 3 3 3 3 4 5 5 5 4 4 4 3 3 3 4 4 5 4 4 4 4 4 3 3 2 2 3 4 5 6 6 5 4 3 3 3 3
0 0 0 0 1 1 1 1 2 2 2 3 3 3 3 3 4 4 4 4 4 4 5 5 5 5 5 5 5 5 4 4 3 3 3 3 2 2 3 4 5 6 7 6 4 4 4 4 3
0 0 0 0 1 1 1 1 1 2 2 2 2 2 2 3 4 4 4 4 4 5 5 6 6 6 6 6 6 5 5 4 3 2 2 2 2 2 2 3 4 5 5 5 4 4 4 4 3
0 0 0 0 1 1 1 1 1 2 2 2 2 2 3 3 3 3 3 3 3 4 6 6 6 6 6 6 6 5 4 4 3 2 1 1 1 1 1 2 3 3 3 3 3 3 3 3 3
0 0 0 0 1 1 1 1 1 1 2 2 3 3 3 3 3 3 3 2 3 4 5 6 5 5 6 6 4 3 3 3 3 2 1 1 1 1 1 1 2 2 2 2 2 2 2 2 2
0 0 0 0 1 1 1 1 1 1 2 3 3 3 3 3 3 2 2 2 3 4 5 5 4 4 4 4 3 3 3 3 3 2 1 1 0 1 1 1 1 2 2 2 2 2 2 2 2
0 0 0 0 0 0 1 1 1 1 2 3 4 4 4 4 3 3 2 3 3 3 4 4 3 3 4 4 4 4 3 3 3 3 2 1 1 0 0 1 1 1 1 1 1 1 1 1 1
0 0 0 0 0 0 0 0 1 1 2 3 4 4 4 4 4 3 3 3 3 3 3 3 3 3 3 4 4 4 3 4 3 2 2 1 1 1 1 1 1 1 1 1 1 1 1 1 1
0 0 0 0 0 0 0 0 1 2 2 3 4 4 3 3 3 3 3 3 4 3 2 2 2 2 3 4 3 2 2 2 2 1 1 1 1 1 1 1 1 1 1 1 1 1 1 1 1
0 0 0 0 0 0 0 0 1 1 2 2 3 3 3 3 3 2 3 3 4 3 2 2 2 2 2 2 2 2 1 1 1 1 1 1 1 1 1 1 1 1 1 1 1 1 0 1 1
0 0 0 0 0 0 0 0 1 1 1 2 3 3 3 3 2 2 2 3 3 2 2 2 2 2 2 2 2 2 1 1 1 1 1 1 1 1 1 1 1 1 1 1 1 0 0 0 0
0 0 0 0 0 0 0 0 1 1 1 2 2 2 2 2 2 2 2 2 2 2 2 2 2 2 2 2 2 2 2 1 1 1 1 1 1 1 1 1 0 0 1 1 1 1 0 0 0
0 0 0 0 0 0 0 0 1 1 2 2 2 2 2 2 2 2 2 2 2 2 2 2 2 2 2 2 2 2 2 2 2 1 1 1 1 1 0 0 0 0 0 1 1 0 0 0 0
0 0 0 0 0 0 0 1 1 2 2 2 2 1 1 2 2 2 2 2 2 2 2 2 2 2 2 2 2 2 2 2 2 2 1 1 1 0 0 0 0 0 0 0 0 0 0 0 0

GEFSSGP_con_maxscp_168.txt.gz
SCP
0 0 0 0 0 0 0 1 2 2 2 3 3 3 2 2 2 1 1 2 2 1 1 1 1 1 1 1 1 1 1 1 1 1 1 1 1 0 0 0 0 0 0 0 0 0 0 0 0
0 0 0 0 0 0 1 2 2 3 3 4 3 3 2 2 2 2 2 2 2 2 1 1 1 1 1 1 1 1 1 1 1 1 1 1 1 1 0 0 0 1 1 1 1 1 1 1 1
0 0 0 0 0 1 1 2 3 4 4 4 3 3 2 2 2 3 3 3 2 2 1 1 1 1 1 1 1 1 1 1 1 1 1 1 1 1 1 0 0 1 1 1 1 1 1 1 1
0 0 0 0 0 1 2 3 3 4 4 4 3 3 3 2 2 3 3 3 2 2 2 2 2 1 1 1 1 1 1 1 1 1 1 1 1 1 1 1 0 0 1 1 1 1 1 1 1
0 0 0 0 0 1 1 2 3 3 3 3 3 4 4 3 2 3 3 3 2 2 2 2 2 2 1 1 1 1 1 1 1 1 1 1 1 1 1 1 1 1 1 1 1 1 1 1 1
0 0 0 0 1 1 2 2 3 3 3 3 4 5 4 3 3 3 2 2 2 2 3 3 3 2 2 2 1 1 1 1 1 1 1 1 1 1 1 1 1 1 1 1 1 1 1 1 1
0 0 0 0 1 2 2 3 3 3 3 3 5 6 5 4 4 4 3 3 3 3 3 3 3 2 2 2 2 2 1 1 1 1 1 1 1 1 1 1 1 1 1 1 1 1 1 1 1
0 0 0 0 1 2 3 4 4 4 4 4 6 7 6 4 4 4 4 4 4 4 4 3 2 2 2 2 2 2 1 1 1 1 1 1 1 1 1 1 1 1 1 1 1 1 1 1 1
0 0 0 0 1 2 4 4 5 6 6 6 7 8 7 5 4 3 3 4 4 5 4 3 2 2 2 2 2 2 2 1 1 1 1 1 1 1 1 1 2 2 2 1 1 1 1 1 1
0 0 0 1 1 3 4 5 5 5 6 6 7 8 7 5 4 3 3 4 5 4 4 3 2 2 2 2 3 2 2 2 2 2 2 2 2 1 1 2 2 2 2 2 2 1 1 1 1
0 0 1 1 2 3 4 4 5 5 4 5 6 7 6 4 3 3 4 4 5 5 4 4 4 4 3 3 3 3 3 2 2 2 3 3 3 2 2 2 2 3 2 2 2 2 2 1 1
0 0 1 2 3 3 4 4 4 4 5 5 5 6 5 4 4 4 5 6 7 7 6 6 6 6 5 4 4 4 3 3 3 3 4 4 4 3 3 3 3 3 3 3 3 3 2 2 2
1 1 1 2 3 3 3 3 4 4 5 6 6 6 5 4 5 6 6 8 9 9 9 8 8 8 7 6 4 4 4 4 4 4 5 4 4 3 3 3 3 3 3 3 3 3 2 2 2
1 1 1 2 2 2 3 3 3 4 5 5 5 5 5 5 6 8 9 9 10 12 12 10 9 8 7 6 5 4 4 5 5 5 5 4 4 4 4 4 4 3 3 3 3 2 2 2 2
1 1 1 1 2 2 2 2 3 3 4 4 5 4 5 6 8 10 10 10 13 15 14 12 10 9 8 6 5 4 4 5 5 5 5 4 4 4 4 4 3 3 3 3 3 3 2 2 2
0 0 1 1 2 2 2 2 3 4 4 4 4 4 5 7 9 10 11 13 17 17 16 14 12 11 9 7 5 5 5 5 5 5 5 4 4 4 4 3 3 3 3 3 3 3 3 2 2
0 0 1 1 1 1 1 2 4 4 4 4 4 4 6 9 10 10 11 15 18 17 16 15 14 12 10 8 6 5 5 5 6 6 5 4 4 5 5 4 3 2 2 2 3 3 3 2 2
0 0 1 1 1 1 1 3 5 5 4 4 4 5 8 10 10 9 10 13 15 15 15 14 13 12 10 8 6 6 6 7 7 6 5 4 4 5 5 3 2 2 2 2 2 2 2 2 2
0 0 1 1 1 1 1 3 5 5 5 5 4 5 8 10 9 8 9 10 11 12 11 10 10 11 10 9 8 7 7 7 6 6 6 5 5 5 4 3 2 2 2 2 2 2 2 2 2
0 0 1 1 1 1 1 2 3 5 5 5 5 5 6 8 8 8 8 9 10 10 9 8 8 9 9 9 8 8 7 6 6 5 6 6 5 4 3 2 2 1 2 2 2 1 2 2 2
0 0 1 1 1 1 1 1 2 4 5 5 5 5 5 6 8 8 7 8 8 9 8 8 8 8 8 7 7 7 7 6 5 4 5 6 5 3 2 2 1 1 1 1 1 1 1 1 1
0 0 1 1 0 1 1 1 1 3 4 5 5 5 5 6 8 9 8 7 8 8 8 8 8 7 6 6 6 6 6 5 4 4 5 5 4 2 1 1 1 1 1 1 1 1 1 1 1
0 0 0 0 0 0 0 1 1 2 3 4 6 8 7 7 9 9 8 8 8 8 7 7 7 7 6 5 5 5 4 4 4 4 4 4 2 1 1 1 1 1 1 1 1 1 1 1 1
0 0 0 0 0 0 0 0 1 2 3 5 7 10 9 8 10 10 9 9 8 7 6 6 7 7 6 5 5 4 4 4 4 3 3 2 1 1 1 1 1 1 1 1 1 1 1 1 1
0 0 0 0 0 0 0 1 2 4 5 6 8 9 9 10 11 10 9 9 7 6 5 5 7 7 6 5 5 4 4 3 3 2 2 1 1 1 1 1 1 1 2 2 2 2 2 2 2
0 0 0 0 0 0 1 1 3 6 7 7 7 7 8 10 10 9 9 8 7 6 5 5 6 7 7 5 5 4 3 2 2 2 2 1 1 1 1 1 2 2 2 2 2 2 2 2 2
0 0 0 0 0 0 0 1 3 5 7 7 7 6 7 9 8 8 8 8 7 7 6 5 5 6 6 4 3 3 3 2 2 2 2 1 1 2 2 2 2 2 2 2 2 2 2 2 2
0 0 0 0 0 0 0 1 3 4 6 7 7 6 6 7 7 7 7 8 8 8 8 7 5 4 4 3 3 3 2 2 2 2 2 2 2 3 3 3 3 2 2 2 2 2 2 2 3
0 0 0 0 0 0 0 1 3 5 6 6 6 6 6 6 6 6 6 7 8 9 10 9 6 4 3 3 3 3 3 3 3 3 2 3 3 3 3 3 2 2 2 2 1 1 2 2 2
0 0 0 1 1 1 0 1 4 6 6 5 5 5 6 6 6 6 6 7 9 11 11 11 7 4 3 3 3 3 3 3 3 3 3 3 4 4 3 3 2 2 1 1 1 1 1 1 1

GEFSSGP_con_maxscp_174.txt.gz
SCP
0 0 0 0 0 0 0 0 1 1 2 2 2 2 2 2 1 1 1 1 1 2 2 1 2 2 2 2 2 1 1 1 1 1 1 1 1 1 1 1 1 1 1 1 1 1 1 1 1
0 0 0 0 0 0 0 1 1 2 2 2 2 2 2 2 2 1 1 1 2 2 2 1 2 2 2 2 2 1 1 1 1 1 1 1 1 1 1 1 1 1 1 1 1 1 1 1 1
0 0 0 0 0 0 0 1 2 3 3 3 3 3 3 2 2 2 1 1 2 2 2 2 2 2 2 2 1 1 1 1 1 1 1 1 1 1 1 1 1 1 1 0 0 0 1 1 1
0 0 0 0 0 0 0 1 2 3 4 4 3 3 3 3 3 2 2 2 2 2 2 2 2 2 2 2 2 1 1 1 1 1 1 1 1 1 1 1 1 1 1 1 1 1 1 1 1
0 0 0 0 0 0 1 1 2 3 3 4 5 5 4 4 3 3 2 2 2 3 3 2 2 2 2 2 2 2 1 1 1 1 1 1 1 1 1 1 1 1 1 1 1 1 1 1 1
0 0 0 0 0 0 1 1 2 2 3 5 6 7 6 4 3 3 2 3 3 3 3 3 2 2 2 2 2 2 2 2 1 1 1 1 1 1 1 1 1 1 1 1 1 1 1 1 1
0 0 0 0 0 1 1 1 2 3 4 5 7 8 7 5 3 3 2 3 4 4 3 3 2 2 2 2 2 2 2 2 2 1 1 1 1 1 1 1 1 1 1 1 1 1 1 1 1
0 0 0 0 1 1 1 1 3 4 5 6 8 10 9 7 4 3 3 3 4 4 4 3 3 3 2 2 2 2 2 2 2 1 1 1 1 1 1 1 1 1 1 1 1 1 1 1 1
0 0 0 1 1 1 1 2 2 4 6 8 11 12 11 9 6 4 3 4 4 5 4 4 3 3 2 2 2 2 2 2 1 1 1 1 1 1 1 1 1 1 1 1 1 1 1 1 1
0 0 1 1 1 1 2 2 2 3 6 10 12 13 12 10 7 5 4 4 5 5 5 4 4 3 3 2 2 2 2 2 1 1 1 1 1 1 1 1 2 2 2 2 1 1 1 1 1
0 1 1 1 2 2 2 2 2 3 5 8 12 13 12 10 8 6 5 5 5 5 5 4 4 3 3 3 3 2 2 2 2 1 1 1 1 1 1 2 2 2 2 2 2 2 2 2 2
1 2 2 1 2 3 3 2 2 2 3 5 9 11 10 10 9 7 7 6 5 5 5 4 4 4 4 4 3 3 2 2 2 1 1 2 2 2 2 2 2 2 3 3 2 2 2 2 2
2 3 2 1 2 3 3 3 2 2 2 4 6 8 9 9 9 8 7 8 7 6 5 5 5 5 5 5 4 3 3 2 2 2 2 2 2 2 2 2 2 2 2 3 2 2 2 2 2
2 2 2 1 2 3 4 3 3 2 3 4 6 8 9 9 8 7 7 8 8 7 5 5 6 7 7 6 5 4 3 2 2 2 2 2 2 2 2 2 2 1 2 2 2 2 2 1 1
1 1 1 1 2 2 3 3 2 2 3 4 6 9 9 8 7 6 6 7 7 7 6 6 8 9 9 8 6 5 4 3 2 2 2 2 2 2 2 1 1 1 1 1 1 1 1 1 1
1 1 1 1 1 2 2 2 2 3 4 5 6 8 7 6 5 5 5 6 7 7 7 7 10 12 12 11 9 7 5 4 3 3 2 2 2 1 1 1 1 1 1 1 1 1 1 1 1
0 0 0 1 1 1 2 2 3 4 4 5 5 6 5 4 4 5 5 6 7 7 7 7 9 13 13 12 10 8 6 4 3 2 2 2 2 2 1 1 1 1 0 0 0 0 0 0 1
0 0 0 0 1 1 2 3 5 5 4 4 4 4 4 4 5 6 6 7 7 7 6 6 8 11 11 9 8 6 5 3 2 2 2 2 2 2 2 1 1 1 0 0 0 0 0 0 0
0 0 0 0 1 1 2 4 6 5 4 4 4 5 5 5 5 6 7 8 8 7 7 7 7 7 7 6 6 5 4 3 3 2 2 2 2 2 2 1 1 0 0 0 0 0 0 0 0
0 0 0 0 1 2 2 4 5 5 4 4 5 6 6 6 5 6 7 8 8 8 8 7 6 5 5 5 4 3 3 3 2 2 2 2 2 1 1 1 1 1 0 0 0 0 0 0 0
0 0 0 0 1 1 2 3 4 4 3 4 5 6 7 7 6 6 7 8 8 8 8 6 5 4 4 4 4 3 3 2 2 2 2 1 1 1 1 1 1 1 0 0 0 0 0 0 0
0 0 0 0 1 1 1 1 2 3 3 4 6 8 8 7 6 5 6 7 7 7 6 5 4 4 4 3 4 3 3 2 2 2 2 1 0 0 0 0 0 0 0 0 0 0 0 0 0
0 0 0 0 0 0 0 0 1 2 2 3 6 9 10 8 7 6 5 6 6 6 6 5 4 3 3 3 3 3 2 2 1 1 1 1 0 0 0 0 0 0 0 0 0 0 0 0 0
0 0 0 0 0 0 0 0 1 1 1 2 5 8 8 8 8 7 6 6 6 6 6 5 4 4 3 2 2 2 2 1 1 1 1 0 0 0 0 0 0 0 0 0 0 0 0 0 0
0 0 0 0 0 0 0 0 1 1 1 2 3 4 6 8 9 8 6 6 7 7 6 6 5 4 3 2 2 2 1 1 1 0 0 0 0 0 0 0 0 0 0 0 0 0 0 0 0
0 0 0 0 0 0 0 1 1 1 2 2 2 3 4 6 8 8 6 6 7 7 7 7 6 5 3 2 1 1 1 1 1 0 0 0 0 0 0 0 0 0 0 0 0 0 0 0 0
0 0 0 0 0 0 0 1 1 1 2 3 3 4 4 4 6 7 7 7 7 8 8 7 6 5 3 2 1 1 1 1 1 1 0 0 0 0 0 0 0 0 0 0 0 0 0 0 0
0 0 0 0 0 0 0 0 1 1 2 4 5 5 4 4 5 6 7 9 10 9 8 7 6 4 3 2 1 1 1 1 1 1 1 1 0 0 0 0 0 0 0 1 0 0 0 0 0
0 0 0 0 0 0 0 0 1 1 2 4 5 5 4 3 4 5 7 9 10 10 9 7 6 4 3 2 2 1 1 1 1 1 1 0 0 0 0 0 0 1 1 1 0 0 0 0 0
0 0 0 0 0 0 0 0 1 1 2 3 4 4 4 3 3 4 5 7 9 10 9 7 6 5 4 3 2 1 1 1 1 1 1 0 0 0 0 0 0 1 1 0 0 0 0 0 0

GEFSSGP_con_maxscp_180.txt.gz
SCP
0 0 0 0 0 0 0 0 0 0 1 1 1 1 1 1 1 0 0 1 1 2 2 2 2 2 2 2 2 2 2 2 1 1 1 1 1 1 1 1 1 1 1 1 1 1 1 1 1
0 0 0 0 0 0 0 0 0 1 1 1 1 1 1 1 1 1 1 1 2 2 2 2 2 2 2 2 2 2 2 2 2 2 2 1 1 1 1 1 1 1 1 1 1 1 1 1 1
0 0 0 0 0 0 0 0 1 1 1 1 1 1 1 1 1 1 2 2 2 2 3 2 3 2 2 2 2 2 2 2 2 2 2 1 1 1 1 1 1 1 1 1 1 1 1 1 1
0 0 0 0 0 0 0 1 1 1 1 2 2 2 2 1 1 2 2 2 2 2 3 3 3 3 3 2 2 2 2 2 2 2 2 2 1 1 1 1 1 1 1 1 1 2 2 2 2
0 0 0 0 0 0 0 1 1 1 1 2 2 2 2 2 1 2 2 2 2 2 2 3 3 3 3 3 2 2 2 2 2 2 2 2 2 2 2 1 1 1 1 1 1 2 2 2 2
0 0 0 0 0 1 1 1 1 1 1 2 2 2 2 2 2 2 3 3 2 2 2 3 3 4 4 3 3 2 2 2 2 2 2 2 1 1 1 1 1 1 1 1 1 1 1 1 1
0 0 0 0 1 1 1 1 1 1 1 1 2 2 2 2 2 3 4 4 2 2 2 3 3 4 4 4 3 3 2 2 2 2 2 1 1 1 1 1 1 1 1 1 1 1 1 1 1
0 0 0 0 1 1 1 1 2 2 1 2 2 2 2 2 3 4 5 4 3 2 2 3 3 3 4 4 3 3 3 2 2 2 2 1 1 1 1 1 1 1 1 1 1 1 1 1 1
0 0 0 0 1 1 1 1 2 2 2 2 2 2 3 3 4 5 6 5 4 3 3 3 3 3 3 4 3 3 3 2 2 2 2 2 1 1 1 1 1 1 1 1 1 1 1 1 1
0 0 1 1 1 1 1 1 2 2 2 2 2 3 3 4 5 6 6 5 5 4 3 3 3 3 3 3 3 3 3 2 2 2 2 2 1 1 1 1 1 1 1 1 1 1 1 1 1
0 1 1 1 1 1 2 2 2 2 2 2 3 3 4 4 5 5 6 6 6 5 4 4 4 4 4 3 3 3 3 2 2 2 2 2 2 1 1 1 1 1 1 1 1 1 1 2 2
1 1 1 1 1 2 2 1 1 1 1 2 3 4 4 4 4 5 5 5 5 5 4 4 5 5 4 4 3 3 3 2 2 2 2 2 2 1 1 1 1 1 1 1 1 1 1 2 2
1 1 1 1 1 1 1 1 1 1 2 3 4 4 4 3 4 4 5 5 5 5 5 5 5 6 5 4 4 4 3 3 2 2 2 2 2 1 1 1 1 1 1 1 1 1 1 1 1
1 1 2 1 1 1 1 2 2 2 2 3 4 4 4 3 3 4 4 4 4 5 6 6 5 5 5 5 4 3 3 3 2 2 1 1 1 1 1 1 1 1 1 1 1 1 1 1 1
1 1 1 1 1 1 1 2 2 2 3 3 4 4 4 4 3 3 3 3 4 5 6 6 5 4 4 4 3 3 3 2 2 1 1 1 1 1 1 1 1 1 1 0 1 1 1 1 1
1 1 1 1 1 1 1 2 2 2 2 3 4 4 4 4 3 3 3 3 4 5 6 5 4 4 3 3 3 3 3 2 2 1 1 1 1 1 1 1 1 1 0 0 0 0 0 1 1
0 0 1 1 1 1 1 1 2 2 2 3 3 4 4 3 3 3 3 3 4 5 5 4 4 3 3 3 4 3 3 2 2 2 1 1 1 1 1 1 1 1 0 0 0 0 0 0 0
0 0 1 1 1 1 1 1 1 2 2 3 3 3 3 3 3 3 4 4 4 4 4 4 3 3 3 4 4 3 2 2 2 2 1 1 1 1 1 1 1 1 1 1 0 0 0 0 0
0 0 1 1 1 1 1 1 1 1 2 2 3 3 3 3 3 4 4 4 4 5 5 5 4 4 4 4 4 3 2 2 2 2 1 1 1 1 1 1 1 1 1 1 0 0 0 0 0
0 0 1 1 1 1 1 1 1 1 1 2 2 2 3 3 3 4 4 4 5 5 6 6 6 5 4 4 3 2 2 1 1 1 1 1 1 1 1 2 2 1 1 1 0 0 0 0 0
0 0 0 1 1 1 1 1 1 1 1 2 2 2 3 3 3 3 3 4 4 5 6 7 6 5 4 4 3 2 2 1 1 1 1 0 0 1 1 1 2 1 1 0 0 0 0 0 0
0 0 0 1 1 1 1 1 0 1 1 1 2 3 3 3 2 3 3 3 4 5 6 6 6 5 4 4 3 2 1 1 1 1 0 0 0 0 0 1 1 1 0 0 0 0 0 0 0
0 0 0 0 1 1 0 0 0 0 1 1 2 3 3 2 2 2 3 3 3 5 6 6 5 5 5 4 3 2 1 1 1 0 0 0 0 0 0 0 0 0 0 0 0 0 0 0 0
0 0 0 0 0 0 0 0 0 0 1 1 2 3 3 2 2 2 3 3 3 5 6 6 5 6 5 4 3 2 1 1 0 0 0 0 0 0 0 0 0 0 0 0 0 0 0 0 0
0 0 0 0 0 0 0 0 0 0 1 1 2 3 3 2 2 2 3 4 4 5 6 6 5 5 5 4 3 2 1 0 0 0 0 0 0 0 0 0 0 0 0 0 0 0 0 0 0
0 0 0 0 0 0 0 0 0 1 1 1 1 2 2 2 2 3 3 4 4 4 6 7 5 4 4 4 3 1 1 0 0 0 0 0 0 0 0 0 0 0 0 0 0 0 0 0 0
0 0 0 0 0 0 0 0 0 1 1 1 1 2 2 3 3 3 3 3 3 3 5 7 6 4 3 3 2 1 1 1 0 0 0 0 0 0 0 0 0 0 0 0 0 0 0 0 0
0 0 0 0 0 0 0 0 0 0 1 1 1 2 2 2 2 2 2 3 2 2 4 6 6 5 3 3 2 1 1 1 0 0 0 0 0 0 0 0 0 0 0 0 0 0 0 0 0
0 0 0 0 0 0 0 0 0 0 0 1 1 1 1 2 2 2 2 2 2 1 3 6 7 6 4 3 2 1 1 1 0 0 0 0 0 0 0 0 0 0 0 0 0 0 0 0 0
0 0 0 0 0 0 0 0 0 0 0 1 1 1 1 1 2 2 3 2 1 1 3 6 8 6 5 3 2 1 1 1 0 0 0 0 0 0 0 0 0 0 0 0 0 0 0 0 0

GEFSSGP_con_maxscp_186.txt.gz
SCP
0 0 0 0 0 0 0 0 0 0 1 1 1 1 1 1 1 1 1 1 1 2 2 2 2 2 2 2 1 1 1 1 1 2 2 2 2 2 1 1 1 1 1 1 1 1 1 1 1
0 0 0 0 0 0 0 0 0 1 1 1 1 1 1 1 1 1 1 1 1 2 2 2 3 2 2 2 2 1 1 1 1 2 2 2 2 1 1 1 1 1 1 1 1 1 1 1 1
0 0 0 0 0 0 0 1 1 1 1 1 1 1 1 1 1 1 1 1 2 2 2 3 3 2 2 2 2 2 2 2 2 2 2 2 1 1 1 1 1 1 1 1 1 1 1 1 1
0 0 0 0 0 0 0 1 1 1 1 1 1 1 1 1 1 1 1 2 2 2 3 3 3 2 2 2 2 2 2 2 2 2 2 2 1 1 1 1 1 1 1 1 1 1 1 1 1
0 0 0 0 0 0 0 1 1 1 1 1 1 1 1 1 1 1 2 2 2 2 3 3 3 2 2 2 2 2 2 2 2 2 2 1 1 1 1 1 1 1 1 1 1 1 1 1 1
0 0 0 0 0 0 1 0 1 1 1 1 1 1 2 2 2 2 2 2 2 3 4 3 3 2 2 2 2 2 2 2 2 2 2 1 1 1 1 1 1 1 1 1 1 1 1 1 1
0 0 0 0 0 1 1 1 1 1 1 1 1 1 2 2 2 2 3 3 3 4 4 3 2 2 2 2 2 2 2 2 2 2 2 2 2 2 1 1 1 1 1 1 1 1 1 1 1
0 0 0 0 0 1 1 1 1 1 1 1 1 1 2 2 3 3 3 4 4 4 5 4 3 2 3 4 4 3 3 3 3 2 2 2 2 2 2 1 1 1 1 1 1 1 1 1 1
0 0 0 0 0 1 1 1 1 1 2 2 2 2 2 3 3 3 4 4 4 4 5 4 3 3 4 5 5 4 4 3 3 2 2 2 2 2 2 2 2 1 1 1 1 1 1 1 1
0 0 0 1 1 1 1 1 2 2 2 2 3 3 3 3 3 3 4 4 4 4 5 4 4 3 4 5 5 5 4 3 2 2 2 2 2 2 2 2 2 2 1 1 1 1 1 1 1
0 0 1 1 1 1 2 2 2 2 2 2 3 3 3 3 3 3 3 4 4 4 4 4 4 4 4 4 4 4 4 3 2 2 2 2 2 2 2 3 3 2 2 2 2 2 2 1 2
0 1 1 1 1 1 2 2 2 2 2 2 3 3 3 3 3 3 3 4 4 4 3 3 4 4 5 4 4 4 4 3 3 3 3 3 3 3 3 3 3 3 3 2 2 2 2 2 2
0 1 1 1 1 2 2 2 2 2 3 2 2 3 3 3 3 3 4 4 4 4 4 4 5 5 6 5 4 4 4 4 4 5 5 4 4 4 4 4 4 4 4 3 3 2 2 2 2
1 1 1 1 1 2 2 2 2 2 3 3 3 3 3 4 4 4 4 4 4 4 4 5 6 7 6 6 5 4 4 4 5 6 6 6 6 5 5 5 5 4 4 4 3 3 3 3 2
1 1 1 2 1 1 1 2 2 2 2 3 3 3 3 3 3 4 4 4 4 4 5 5 6 7 7 7 6 5 4 5 6 7 7 7 7 7 6 6 5 5 4 4 3 3 3 2 2
0 0 1 1 1 1 1 1 2 2 2 3 3 3 3 3 3 3 4 4 4 4 5 5 6 7 7 8 7 6 5 5 6 6 7 7 7 7 7 6 5 4 4 3 3 3 2 2 2
0 0 1 1 1 1 1 1 1 1 2 2 2 2 3 3 3 3 4 4 4 4 5 5 5 6 8 9 8 7 6 6 6 6 6 6 6 6 6 5 4 3 3 3 2 2 2 2 2
0 0 1 1 1 1 1 1 1 1 2 2 2 2 3 3 3 3 4 3 3 4 4 5 6 7 8 9 9 8 7 7 6 5 5 5 5 5 4 4 3 3 2 2 2 2 2 2 2
0 0 1 1 1 1 1 1 1 2 2 1 1 2 3 3 3 3 3 3 3 4 5 5 6 8 9 9 9 9 9 8 7 6 5 4 4 4 3 3 2 2 2 2 2 2 3 3 3
0 0 0 1 1 1 1 1 2 2 2 1 1 2 3 3 3 3 3 3 4 4 5 5 7 8 9 9 10 10 10 9 8 6 4 4 3 3 2 2 2 2 2 1 1 2 3 3 3
0 0 0 0 0 0 1 1 1 2 2 1 1 2 3 4 4 3 3 3 3 4 5 5 7 8 9 10 10 10 10 9 8 6 4 4 3 3 2 2 2 1 1 2 1 2 2 2 2
0 0 0 0 0 0 0 1 1 1 1 1 1 1 3 4 4 3 2 2 3 3 4 4 6 8 10 11 11 11 10 9 7 6 5 4 3 3 2 1 1 1 1 1 1 1 2 1 1
0 0 0 0 0 0 0 0 1 1 1 1 1 1 2 4 4 3 2 2 2 2 3 4 5 7 9 11 12 12 10 8 7 6 5 4 3 3 2 2 1 1 1 1 1 1 1 1 1
0 0 0 0 0 0 0 0 1 1 1 1 1 1 3 4 4 2 2 2 2 2 3 4 4 5 7 9 10 10 8 7 7 7 6 4 3 3 3 2 2 1 1 1 1 1 1 1 1
0 0 0 0 0 0 0 0 1 1 1 1 1 1 3 4 3 2 2 1 2 2 3 4 4 4 6 7 7 6 5 5 6 6 5 4 3 3 3 2 2 1 1 1 1 1 1 1 1
0 0 0 0 0 0 0 0 1 1 1 1 1 2 2 3 2 2 1 2 2 2 4 4 4 3 4 6 6 5 4 4 5 5 5 4 3 3 2 2 1 1 1 1 1 1 1 1 1
0 0 0 0 0 0 0 0 1 1 1 1 2 2 2 2 2 2 2 2 2 2 3 4 3 3 3 4 5 4 3 3 4 4 4 3 3 2 1 1 1 1 1 1 1 1 1 1 1
0 0 0 0 0 0 0 0 1 1 1 1 1 2 2 2 2 2 2 2 2 3 3 3 3 3 3 4 5 4 3 2 3 3 3 2 2 1 1 1 1 1 1 1 1 1 1 1 1
0 0 0 0 0 0 0 0 1 1 1 1 1 2 2 3 2 2 2 3 3 3 3 3 3 3 3 3 4 3 2 2 2 2 2 2 1 1 1 1 1 1 1 1 1 1 1 1 1
0 0 0 0 0 0 0 0 0 1 1 1 1 1 2 3 2 2 3 3 3 3 3 2 3 3 3 3 3 3 2 2 2 2 2 2 1 1 1 1 1 1 1 1 1 1 1 1 1

GEFSSGP_con_maxscp_192.txt.gz
SCP
0 0 0 0 0 0 0 0 0 0 1 1 1 1 2 2 2 2 2 2 3 3 3 3 3 3 3 3 2 2 2 2 2 1 1 1 1 1 1 1 1 1 1 1 1 1 1 1 1
0 0 0 0 0 0 0 0 1 1 1 1 1 2 2 2 2 2 2 3 3 3 3 3 3 3 3 3 2 2 2 2 1 1 1 1 1 1 1 1 1 1 1 1 1 1 1 1 1
0 0 0 0 0 0 0 1 1 1 1 1 2 2 2 2 2 2 2 4 4 3 3 3 3 3 3 3 3 2 2 2 1 1 1 1 1 1 1 1 1 1 1 1 1 1 1 1 1
0 0 0 0 0 0 1 1 1 1 1 1 2 2 3 2 2 2 3 4 5 4 3 4 4 4 3 3 3 3 2 2 1 1 1 1 1 1 1 1 1 1 1 1 1 1 1 1 1
0 0 0 0 0 0 1 1 1 1 1 1 2 2 2 2 2 2 3 4 5 4 4 4 5 5 4 3 3 3 3 2 2 1 1 2 2 2 2 2 2 1 1 1 1 1 1 1 1
0 0 0 0 1 1 1 1 1 1 1 1 2 3 3 3 2 2 3 4 5 5 5 5 5 5 4 3 3 3 3 3 2 2 2 2 2 2 2 2 2 2 1 1 1 1 1 1 1
0 0 0 0 1 1 1 1 1 1 1 2 2 3 3 3 2 2 3 4 5 5 5 5 4 4 4 3 3 3 3 3 3 2 2 2 2 2 2 2 2 2 2 1 1 1 1 1 1
0 0 0 1 1 1 1 2 2 2 2 2 2 3 4 4 3 3 3 3 5 6 5 5 4 4 3 3 4 4 4 4 3 3 3 3 2 2 2 2 2 2 2 2 1 1 1 1 1
0 0 0 1 1 1 2 3 3 3 3 4 3 4 4 4 3 3 3 5 6 6 6 5 4 3 3 4 5 5 5 4 4 4 3 3 3 3 3 3 3 3 2 2 2 2 1 1 1
0 0 0 1 2 2 2 4 4 3 3 4 6 6 5 3 3 3 5 7 8 7 6 6 4 4 4 4 6 7 6 5 5 4 4 4 4 3 3 3 4 3 3 3 2 2 2 2 2
0 0 1 1 2 2 3 4 4 3 3 3 6 8 6 4 3 4 7 9 9 7 6 6 6 5 4 5 6 7 6 6 6 6 6 6 6 5 4 4 5 4 4 3 3 2 2 2 2
0 0 1 1 2 3 4 4 4 4 3 3 5 6 6 5 5 6 7 8 8 7 7 7 7 7 7 7 7 7 7 8 8 8 8 9 9 7 5 6 6 5 5 4 4 3 2 2 2
0 1 1 2 2 3 5 4 4 4 4 4 3 4 4 5 6 6 6 6 7 9 10 9 8 9 9 10 10 10 9 9 9 10 11 12 12 9 8 7 7 7 6 6 5 4 3 2 2
1 2 2 2 2 3 3 3 3 4 4 3 3 3 3 4 5 5 5 6 8 11 12 11 9 10 11 12 13 12 11 10 9 10 13 15 15 12 10 9 8 7 7 7 6 5 4 3 2
2 3 3 2 2 1 1 2 3 3 3 2 2 2 3 3 5 6 7 8 10 11 12 10 9 11 13 13 13 13 14 13 11 12 15 18 19 16 13 11 9 7 6 6 6 6 5 4 3
1 2 2 2 1 1 1 2 2 2 2 2 2 3 3 4 5 6 8 9 10 10 10 9 10 12 15 16 15 14 15 15 14 15 19 23 23 20 16 13 10 7 6 6 6 6 5 5 4
0 0 1 1 1 1 1 1 2 2 2 2 3 4 4 4 5 6 7 8 8 8 9 9 11 14 16 18 17 15 15 16 16 16 20 25 25 21 17 14 11 8 7 6 6 6 6 5 4
0 0 0 1 1 1 1 1 2 2 2 2 3 5 5 5 6 7 7 6 7 8 9 10 12 15 16 17 16 14 13 14 14 15 18 22 22 19 17 15 11 9 8 7 7 6 5 4 4
0 0 0 1 1 1 1 1 1 1 2 2 3 4 5 6 8 8 7 6 7 8 9 10 12 14 15 15 14 13 12 12 12 12 14 18 18 17 16 13 11 10 9 7 6 5 3 3 3
0 0 0 1 1 1 1 1 1 1 1 2 2 4 5 8 10 9 7 7 8 8 8 9 10 11 12 12 12 12 12 11 9 9 11 13 14 14 13 11 10 9 7 5 4 3 2 2 2
0 0 0 0 0 1 1 1 1 1 2 2 2 3 5 8 11 10 8 7 7 7 7 7 8 9 9 9 10 11 12 10 8 8 9 9 9 9 10 10 9 7 5 3 3 2 2 1 1
0 0 0 0 0 0 1 1 1 1 2 2 2 2 4 7 11 11 9 6 5 5 5 6 8 9 8 8 8 10 10 9 8 8 7 6 6 6 7 8 7 6 4 3 3 2 2 1 1
0 0 0 0 0 0 0 1 1 1 1 2 2 2 3 6 11 12 8 5 4 4 5 7 9 10 9 8 8 8 8 8 8 8 7 6 5 5 5 5 5 4 3 3 2 2 2 1 1
0 0 0 0 0 0 0 1 1 1 1 2 1 2 3 7 11 11 7 4 4 4 6 8 9 9 9 10 10 8 8 7 7 6 6 6 4 4 4 4 3 3 3 2 2 2 2 2 2
0 0 0 0 0 0 0 1 1 1 1 2 2 3 4 7 9 7 5 3 3 5 7 9 8 8 9 11 11 10 8 7 6 5 6 6 4 3 3 3 3 3 3 3 3 3 2 2 2
0 0 0 0 0 0 0 1 1 1 1 3 4 5 6 7 6 5 4 3 3 6 9 9 8 7 8 10 11 10 8 6 5 5 5 5 4 3 3 3 3 3 3 3 3 3 3 2 2
0 0 0 0 0 0 0 0 1 1 1 2 3 4 5 5 5 4 4 4 4 6 9 8 6 5 7 8 9 8 6 5 5 5 4 4 3 3 3 3 3 3 3 3 3 3 3 3 2
0 0 0 0 0 0 0 0 1 1 1 1 2 2 4 4 4 4 4 4 5 6 7 6 5 5 6 6 6 5 5 5 4 4 3 3 3 3 3 2 2 2 2 3 3 3 3 3 3
0 0 0 0 1 1 0 0 1 1 1 1 1 2 4 6 4 3 4 4 5 6 6 5 4 4 5 5 5 4 4 4 4 3 2 2 2 2 2 2 2 2 2 2 3 3 2 2 2
0 0 0 0 1 1 1 1 1 1 1 1 1 3 6 7 5 4 4 4 5 6 6 5 4 4 4 4 4 4 3 3 3 2 2 2 2 2 2 2 1 1 2 2 2 2 2 2 2

GEFSSGP_con_maxscp_198.txt.gz
SCP
0 0 0 0 0 0 0 0 0 0 1 1 2 2 2 1 1 1 1 1 1 1 2 2 2 2 2 2 2 2 2 2 2 2 1 1 1 1 1 1 1 1 1 1 0 1 1 1 1
0 0 0 0 0 0 0 0 0 0 1 2 2 2 2 2 2 1 1 1 1 2 2 2 2 2 2 2 2 2 2 2 2 2 1 1 1 1 1 1 1 1 1 1 0 0 1 1 1
0 0 0 0 0 0 0 0 1 1 2 2 3 2 2 2 2 2 1 1 2 2 2 3 3 3 3 2 2 2 2 2 2 2 1 1 1 1 1 1 1 1 1 1 0 0 0 0 0
0 0 0 0 0 0 0 0 1 2 2 3 3 3 2 2 2 2 2 2 3 3 3 4 4 4 3 2 2 2 2 2 2 1 1 1 1 1 1 1 1 1 1 1 1 0 0 0 0
0 0 0 0 0 0 0 1 1 2 2 3 3 3 3 3 3 2 2 3 3 4 4 5 5 4 3 3 2 2 2 2 1 1 1 1 1 2 2 2 1 1 1 1 1 1 0 0 0
0 0 0 0 0 0 0 1 1 2 2 3 3 3 4 4 4 3 2 3 4 5 5 5 5 4 3 3 3 2 2 2 2 1 1 2 2 2 2 2 2 1 1 1 1 1 1 0 0
0 0 0 0 0 0 0 1 1 2 3 2 3 3 5 6 5 4 3 3 4 5 6 6 5 4 4 3 3 3 2 2 2 2 2 2 2 2 2 2 2 1 1 1 1 1 1 1 1
0 0 0 0 0 0 1 2 3 4 3 2 2 3 6 7 7 6 5 4 5 5 6 6 5 5 4 4 3 3 3 3 2 2 2 2 2 2 2 2 2 1 1 1 1 1 1 1 1
0 0 0 0 0 1 2 4 5 5 4 3 3 4 7 9 9 7 7 6 5 4 5 5 6 5 4 4 4 4 4 3 3 3 3 3 3 2 2 2 2 2 2 1 1 1 1 1 1
0 0 0 0 0 1 2 4 4 4 4 4 3 5 9 11 9 8 7 6 5 4 4 5 6 5 5 5 5 5 4 4 4 4 3 3 3 3 3 3 3 2 2 2 1 1 1 1 1
0 0 1 1 2 2 3 3 3 3 3 3 3 6 11 12 9 7 7 6 5 4 4 5 5 6 6 6 6 6 6 6 5 5 5 4 4 4 3 3 3 3 2 2 2 2 2 2 2
1 1 1 2 3 4 4 4 3 3 2 3 4 7 11 11 8 7 7 6 5 4 4 5 6 7 7 7 7 8 8 8 7 6 6 6 5 5 4 4 4 4 3 3 3 2 2 2 2
1 1 1 1 2 3 3 4 4 3 3 4 5 7 9 8 7 7 7 6 5 5 5 6 7 7 7 7 8 10 10 10 9 8 8 7 7 6 6 6 6 6 5 4 3 3 2 2 2
1 1 1 0 1 2 2 3 3 3 4 5 6 6 7 6 6 7 7 7 5 5 7 9 9 8 7 8 8 9 9 8 8 8 8 8 8 8 8 9 9 8 6 4 3 3 2 2 2
1 1 1 0 1 1 2 2 2 3 4 5 5 5 6 5 6 6 6 5 5 6 9 11 10 9 8 8 8 7 7 6 6 6 7 7 7 8 8 9 10 8 6 4 4 3 2 2 2
1 1 1 0 0 1 1 1 1 3 4 5 4 5 5 6 5 5 5 4 4 6 9 12 12 10 9 8 8 7 6 6 5 5 5 5 5 6 6 7 7 6 5 4 4 3 2 2 2
0 0 0 0 1 1 1 1 1 2 3 4 4 4 6 7 6 5 6 6 5 6 9 12 12 11 10 9 9 7 6 5 4 4 4 4 4 3 4 4 5 5 4 4 4 3 3 2 2
0 0 0 0 0 1 1 1 1 1 2 3 4 5 7 8 8 8 8 7 6 6 8 10 11 10 10 11 10 8 6 5 4 4 3 3 3 3 2 3 3 4 4 4 4 4 3 2 2
0 0 0 0 0 0 1 1 1 1 2 2 4 5 8 10 10 10 10 8 6 6 7 9 10 10 10 10 9 7 6 5 4 4 4 3 3 3 2 2 2 3 4 4 3 3 3 1 1
0 0 0 0 0 0 0 0 1 1 1 2 3 4 8 11 11 11 10 9 7 7 8 9 9 9 9 9 8 7 6 5 5 4 4 4 4 3 2 2 2 2 2 2 2 2 2 1 0
0 0 0 0 0 0 0 0 0 1 1 2 2 4 7 11 11 11 9 8 8 7 8 8 8 8 8 7 7 7 7 6 5 5 5 5 5 4 3 2 1 1 1 1 1 1 1 1 0
0 0 0 0 0 0 0 0 0 0 1 1 2 3 6 9 10 9 8 8 8 7 6 6 6 7 7 7 7 8 8 7 6 5 5 6 6 5 4 2 1 1 1 1 1 1 1 1 0
0 0 0 0 0 0 0 0 0 0 1 1 2 3 5 8 9 7 8 9 8 6 5 5 4 5 5 6 6 7 8 7 5 5 5 6 6 6 4 3 1 1 1 1 1 1 1 1 0
0 0 0 0 0 0 0 0 0 1 1 2 3 4 6 8 8 7 6 7 7 6 5 5 5 5 4 4 5 5 6 6 5 4 5 6 6 5 4 3 1 1 1 2 1 1 1 1 0
0 0 0 0 0 0 0 0 0 1 3 5 6 7 7 7 8 7 6 5 5 6 6 6 6 6 4 3 3 4 4 4 4 3 4 5 5 3 3 2 1 1 1 2 1 1 1 0 0
0 0 0 0 0 0 0 0 0 1 4 6 7 7 6 5 7 7 6 4 4 6 6 6 6 6 4 2 2 3 3 3 3 2 3 4 4 3 2 1 1 1 1 1 1 1 1 0 0
0 0 0 0 0 0 0 0 0 1 2 4 5 4 3 4 5 5 5 4 4 5 6 6 5 4 3 2 2 2 2 2 2 2 2 3 3 2 2 1 1 1 1 1 1 1 1 1 0
0 0 0 0 0 0 0 0 0 0 1 1 2 3 3 3 3 3 3 3 4 6 6 6 4 3 2 2 1 1 1 1 1 1 2 2 2 2 2 1 1 1 1 1 1 1 1 1 1
0 0 0 0 0 0 0 0 0 0 0 1 1 2 3 3 2 1 2 4 5 6 6 6 4 3 2 2 2 1 1 1 1 1 1 1 1 1 1 1 1 1 1 1 1 1 1 1 1
0 0 0 0 0 0 0 0 0 0 0 0 1 2 3 3 1 1 3 5 6 6 6 5 4 3 2 2 2 1 1 1 1 1 1 1 1 1 1 1 1 1 1 1 1 1 1 1 1

GEFSSGP_con_maxscp_204.txt.gz
SCP
0 0 0 0 0 0 0 0 0 0 0 0 0 1 1 1 0 0 1 1 1 2 3 3 3 4 3 3 3 2 2 2 2 2 2 2 2 2 2 2 2 2 2 1 1 1 1 1 1
0 0 0 0 0 0 0 0 0 0 0 1 1 1 1 1 1 1 1 1 2 2 3 3 3 3 3 3 3 3 2 2 2 2 2 2 2 2 2 2 2 2 2 2 1 1 1 1 1
0 0 0 0 0 0 0 0 0 0 1 1 2 2 1 1 1 1 1 2 2 2 3 3 3 3 3 3 3 3 3 2 2 2 2 2 2 3 3 3 3 2 2 2 2 1 1 1 1
0 0 0 0 0 0 0 0 0 1 1 2 2 2 2 1 1 1 2 2 2 3 3 3 3 3 3 3 3 3 3 3 2 2 2 2 3 3 3 3 3 3 3 2 2 1 1 1 1
0 0 0 0 0 0 0 0 1 1 2 2 3 3 2 1 1 2 2 3 3 3 3 3 3 3 3 3 3 3 3 3 2 2 2 2 3 3 3 3 3 3 3 2 2 2 1 1 1
0 0 0 0 0 0 0 1 1 1 1 2 3 3 2 2 2 2 3 3 3 3 4 3 3 3 3 3 3 3 3 3 2 2 2 2 3 3 4 3 3 3 3 2 2 2 2 1 1
0 0 0 0 0 0 0 1 1 1 1 2 3 2 2 2 2 3 3 4 4 3 3 3 3 3 3 4 4 3 3 3 3 2 2 2 3 3 3 3 3 2 2 2 2 2 2 2 2
0 0 0 0 0 0 1 1 1 1 1 2 2 2 2 2 3 4 4 4 4 3 3 3 3 4 4 4 4 4 4 3 3 3 3 3 3 3 3 3 3 2 2 2 3 3 3 3 4
0 0 0 0 0 1 1 1 1 1 2 2 2 2 2 3 4 4 4 4 4 4 3 4 4 4 4 4 4 5 4 4 3 3 3 4 4 4 4 4 4 2 1 2 3 4 4 5 5
0 0 1 1 1 1 1 2 2 2 2 2 2 2 3 4 5 5 4 4 4 4 4 4 5 5 4 5 5 5 6 5 4 4 4 4 4 5 5 5 4 3 2 2 3 4 5 6 7
1 1 1 2 1 1 2 3 2 2 2 2 2 3 4 4 4 4 4 4 4 3 3 4 5 5 5 5 6 6 7 7 6 5 4 4 4 4 5 5 4 2 2 2 3 5 6 6 7
1 1 2 2 2 2 3 3 2 2 2 2 2 3 4 4 4 4 4 4 4 3 3 4 5 6 6 6 7 7 8 8 7 5 4 3 3 4 4 4 3 2 2 2 2 3 5 4 4
1 1 2 2 2 2 3 3 2 2 2 2 3 4 4 4 4 4 4 5 5 4 4 5 6 7 7 7 8 8 8 8 7 5 4 3 3 3 3 3 3 3 3 2 2 2 3 2 2
1 1 1 1 1 2 2 2 1 2 2 2 3 4 4 4 4 4 4 5 5 5 5 5 6 7 8 8 9 8 8 7 6 5 4 4 3 3 2 3 3 3 3 3 3 3 2 2 1
1 1 1 1 1 1 1 1 1 1 2 2 3 3 3 4 4 4 4 4 4 5 5 6 6 7 8 8 8 8 7 7 6 5 4 4 3 2 2 2 2 2 2 3 3 3 3 2 2
0 1 1 1 1 0 1 1 1 1 1 2 3 4 4 4 4 4 3 3 3 4 5 6 6 7 7 8 8 7 7 6 5 5 4 4 3 2 2 2 1 1 1 1 2 2 3 2 2
0 0 0 0 0 0 0 0 1 1 2 2 3 5 5 4 3 3 3 3 3 4 4 5 6 6 7 7 7 7 6 6 5 5 4 3 3 2 2 2 1 1 1 1 1 1 2 2 2
0 0 0 0 0 0 0 1 1 1 2 3 4 5 5 4 3 3 3 3 3 3 3 4 5 6 6 7 7 6 6 6 5 5 4 3 3 2 2 2 1 1 1 1 1 1 1 1 1
0 0 0 0 0 0 0 1 1 1 2 3 4 5 4 3 3 3 4 3 3 3 3 4 4 5 6 7 7 6 6 5 5 5 4 3 3 2 2 2 2 1 1 1 1 1 1 1 1
0 0 0 0 0 0 0 1 1 1 1 2 2 3 3 3 3 4 4 4 3 3 3 3 4 5 6 6 7 6 6 5 5 5 4 3 3 2 2 2 1 1 1 1 1 1 1 1 1
0 0 0 0 0 0 0 0 0 1 1 1 1 2 2 2 3 5 4 3 3 3 3 4 4 5 5 6 6 6 5 5 5 4 4 3 3 3 2 2 1 1 1 1 1 1 1 1 1
0 0 0 0 0 0 0 0 0 0 1 1 1 2 1 2 3 3 3 3 2 2 3 4 5 5 5 5 5 5 4 4 4 4 3 2 2 2 3 2 1 1 1 1 1 1 1 1 1
0 0 0 0 0 0 0 0 0 0 0 1 1 2 1 2 2 2 2 2 2 2 3 4 4 5 5 4 4 4 3 3 3 3 2 2 2 2 2 2 2 1 1 1 1 1 1 1 1
0 0 0 0 0 0 0 0 0 0 0 0 1 1 1 1 1 1 1 2 2 2 2 3 3 4 4 4 4 3 3 2 2 2 2 2 2 2 2 2 2 1 1 1 0 0 0 1 1
0 0 0 0 0 0 0 0 0 0 0 0 0 1 1 1 1 2 3 3 3 3 2 2 2 2 3 3 3 2 2 2 2 2 2 2 2 2 2 2 2 1 1 1 0 0 0 1 1
0 0 0 0 0 0 0 0 0 0 0 0 0 0 0 1 2 3 4 5 4 3 2 2 2 2 2 2 2 1 1 1 1 1 1 2 2 2 2 2 2 1 1 0 0 0 1 1 1
0 0 0 0 0 0 0 0 0 0 0 0 0 0 1 1 2 3 5 5 4 2 2 2 2 2 2 1 1 1 1 1 1 0 1 1 1 2 1 1 1 1 1 1 0 0 1 1 1
0 0 0 0 0 0 0 0 0 0 0 0 0 1 1 1 2 3 4 4 3 1 2 2 2 2 2 1 1 1 1 1 1 0 0 0 1 1 1 1 1 1 1 1 1 1 1 1 1
0 0 0 0 0 0 0 0 0 0 0 0 0 1 1 1 1 2 2 2 1 1 2 2 3 3 2 2 1 1 1 1 1 0 0 0 1 1 1 0 0 1 1 1 1 1 0 0 1
0 0 0 0 0 0 0 0 0 0 0 0 0 0 1 1 1 1 1 1 1 1 1 2 3 3 3 2 1 1 1 1 1 0 0 0 0 1 1 0 0 1 1 1 1 1 0 0 0

GEFSSGP_con_maxscp_210.txt.gz
SCP
0 0 0 0 0 0 0 0 0 0 0 0 0 0 1 1 1 1 1 1 2 2 3 3 3 3 3 3 3 3 3 3 2 2 2 2 2 2 2 2 2 2 2 1 1 1 1 0 0
0 0 0 0 0 0 0 0 0 0 0 0 0 0 1 1 1 1 1 1 2 3 3 3 3 3 3 2 2 2 2 2 2 2 2 2 2 2 2 2 2 2 2 2 1 1 1 1 0
0 0 0 0 0 0 0 0 0 0 0 0 0 1 1 1 1 1 1 1 2 3 3 3 3 3 2 2 2 2 2 2 2 2 2 2 2 2 2 3 3 3 3 2 2 1 1 1 1
0 0 0 0 0 0 0 0 0 0 0 0 1 1 1 1 1 1 1 2 2 3 3 3 3 3 2 2 2 2 3 3 2 2 2 2 2 2 2 3 4 5 4 3 2 2 1 1 1
0 0 0 0 0 0 0 0 0 0 0 1 1 1 1 1 1 1 1 2 2 3 3 3 3 3 3 2 2 3 3 3 3 2 2 2 3 2 2 3 4 4 5 4 2 2 2 1 1
0 0 0 0 0 0 0 0 0 1 1 1 1 1 1 1 1 2 2 2 2 3 3 3 3 3 3 3 3 3 3 3 3 3 3 3 3 3 3 3 3 4 5 4 2 2 2 1 1
0 0 0 0 0 0 0 0 1 1 1 1 1 1 1 1 2 2 2 2 2 3 3 3 2 3 3 3 3 3 3 3 3 3 3 3 4 4 4 4 3 4 5 4 3 2 2 2 2
0 0 0 0 0 0 0 0 1 1 1 1 1 2 2 2 2 2 2 2 2 3 3 2 2 2 3 3 3 3 3 3 3 3 3 4 4 4 4 4 4 5 5 5 3 3 3 2 2
0 0 0 0 0 1 1 1 1 1 1 1 1 2 2 2 2 3 2 2 2 2 2 2 2 2 2 2 2 3 3 3 3 3 3 4 4 4 5 4 4 5 5 5 4 3 3 2 2
0 0 0 1 1 1 1 1 1 1 1 1 1 2 2 2 3 3 2 2 2 2 2 2 2 2 2 2 3 3 3 3 3 3 3 3 4 4 4 4 4 4 4 4 3 3 2 2 2
0 1 1 1 1 1 1 1 1 1 1 1 2 2 2 3 3 3 2 2 2 2 2 2 3 3 3 3 4 4 4 4 3 3 4 4 4 4 3 3 3 4 4 4 4 3 2 2 2
1 1 1 2 2 1 1 1 1 1 1 2 2 2 2 3 3 3 3 2 2 2 2 3 3 3 4 5 5 5 4 4 4 4 5 4 4 4 3 3 3 3 3 3 4 3 3 2 2
1 1 2 2 2 2 1 1 1 1 2 2 2 2 2 3 4 4 3 3 3 2 3 3 3 4 6 7 7 6 5 5 5 5 5 5 5 4 3 3 3 3 3 3 3 3 3 2 2
1 1 2 2 2 2 1 1 1 2 1 1 2 2 2 3 4 4 3 3 3 3 3 3 4 5 7 9 8 7 6 6 5 6 6 6 5 4 4 4 3 3 3 3 2 2 2 2 1
1 1 1 2 2 1 1 1 1 1 1 1 1 1 2 3 4 4 4 3 3 3 3 4 4 5 7 8 8 7 6 6 6 6 6 6 5 5 5 4 4 3 3 3 3 2 2 1 1
1 1 1 1 1 1 1 1 1 1 1 1 1 1 2 3 3 3 4 4 4 4 4 4 4 5 6 7 7 6 5 5 5 6 6 5 5 5 5 5 4 4 4 4 3 2 2 1 1
0 0 0 1 1 1 1 1 1 1 1 1 1 2 2 3 3 3 4 4 4 4 4 4 4 5 6 6 5 5 5 5 5 5 5 5 4 5 5 5 5 4 4 4 3 3 2 2 1
0 0 0 0 1 1 1 1 1 1 1 1 1 2 2 3 3 3 3 4 4 4 4 4 4 5 6 6 5 5 5 5 5 5 5 5 4 4 5 5 5 5 4 4 4 4 3 3 2
0 0 0 0 0 0 0 1 1 1 1 1 1 2 2 3 3 3 3 3 4 4 4 5 5 6 7 6 5 5 5 5 5 4 4 5 5 5 5 5 5 5 5 5 5 5 4 4 3
0 0 0 0 0 0 0 0 1 1 1 1 2 2 2 3 3 3 3 3 4 4 5 6 6 6 6 6 5 5 6 6 5 4 4 5 5 5 5 5 5 5 5 5 5 6 5 4 4
0 0 0 0 0 0 0 0 1 1 1 1 1 1 2 3 3 3 3 3 3 4 4 6 7 7 6 6 6 6 6 7 6 5 5 5 5 4 4 4 4 4 4 5 6 6 5 4 4
0 0 0 0 0 0 0 0 1 1 1 1 1 1 1 2 2 3 3 3 3 3 4 5 5 6 5 6 6 6 6 7 6 6 5 5 4 4 4 4 4 4 4 5 6 6 5 5 5
0 0 0 0 0 0 0 0 1 1 1 1 1 1 1 1 2 3 3 2 2 3 3 4 5 5 4 5 5 5 6 6 6 6 6 5 5 4 3 3 3 4 4 5 6 5 5 5 5
0 0 0 0 0 0 0 0 1 1 1 1 1 1 1 1 2 2 2 2 2 2 2 3 4 4 4 4 4 5 5 5 5 6 6 5 5 4 3 3 3 4 4 4 5 5 5 5 5
0 0 0 0 0 0 0 0 1 1 0 1 1 1 1 1 2 2 2 2 2 2 2 2 3 4 4 5 5 4 5 5 5 5 5 4 4 3 3 3 3 4 3 3 4 4 4 4 4
0 0 0 0 0 0 0 0 0 0 1 1 1 1 1 2 2 2 2 2 3 3 2 2 2 3 4 5 5 5 5 5 5 5 4 4 3 3 2 2 2 3 2 2 3 3 4 3 3
0 0 0 0 0 0 0 0 0 0 1 1 1 1 1 2 2 3 3 3 3 3 3 2 2 3 3 4 5 6 6 5 5 4 4 3 3 2 2 2 1 1 1 1 2 3 3 3 3
0 0 0 0 0 0 0 0 0 0 0 1 1 1 1 2 2 3 3 3 3 3 2 2 2 2 3 3 4 4 5 5 5 4 3 3 2 2 1 1 1 1 1 2 2 3 3 3 3
0 0 0 0 0 0 0 0 0 0 0 0 1 1 1 1 2 2 2 2 2 2 2 2 2 2 2 3 3 4 5 5 5 4 3 2 2 1 1 1 1 1 2 2 2 3 3 2 2
0 0 0 0 1 0 0 0 0 0 0 0 1 1 1 1 2 2 2 2 3 2 2 2 2 2 3 3 3 4 5 6 5 4 3 2 2 1 1 1 1 1 2 2 2 3 2 2 2

GEFSSGP_con_maxscp_216.txt.gz
SCP
0 0 0 0 0 0 0 0 0 1 1 1 1 1 2 2 2 2 2 2 3 3 3 3 3 3 2 2 1 1 1 1 1 1 1 1 1 1 1 1 2 2 2 2 2 2 2 2 2
0 0 0 0 0 0 0 0 1 1 1 1 1 1 2 2 2 2 2 2 3 3 3 3 3 3 2 2 2 1 1 1 1 1 1 1 1 1 2 2 2 2 2 3 3 2 2 2 2
0 0 0 0 0 0 0 0 1 1 1 1 1 1 2 2 2 2 2 3 3 3 3 3 3 3 3 2 2 2 2 1 1 1 2 2 2 2 2 2 2 3 3 3 3 3 2 2 2
0 0 0 0 0 0 1 1 1 1 1 1 1 2 2 3 3 2 3 3 3 3 3 3 3 3 3 3 2 2 2 2 2 2 2 2 3 3 3 3 3 3 3 3 3 3 3 2 2
0 0 0 0 0 1 1 1 1 1 1 1 2 2 3 3 3 3 3 3 3 3 3 3 3 3 3 2 2 2 2 2 2 3 3 3 4 4 4 3 3 3 3 3 3 3 3 3 3
0 0 0 0 0 1 1 0 1 1 2 2 2 3 2 2 2 2 2 2 3 4 4 3 3 3 2 2 2 2 2 3 3 3 3 3 4 4 4 4 3 3 3 3 3 3 4 4 3
0 0 0 0 0 1 1 1 1 2 2 3 3 3 2 2 2 2 2 2 3 4 5 4 3 2 3 2 2 3 3 3 3 2 2 3 3 4 4 4 3 3 3 2 2 3 3 4 4
0 0 0 0 1 1 1 1 1 2 2 2 2 2 2 2 2 2 2 3 4 5 6 5 3 3 2 2 2 3 3 3 3 2 2 3 3 3 3 3 3 3 3 2 2 2 2 2 2
0 0 0 1 1 1 1 1 1 2 2 2 3 3 3 3 2 2 3 4 5 5 5 5 4 3 3 2 2 3 3 3 3 3 3 3 2 2 2 2 2 3 2 2 2 2 1 1 1
0 0 1 1 2 1 1 1 1 1 2 3 4 4 3 3 3 3 4 4 5 5 5 6 5 4 3 3 3 3 2 3 3 3 3 3 2 2 1 2 2 2 2 2 2 2 1 1 1
0 0 1 1 1 1 1 1 1 1 2 4 5 4 3 3 3 4 5 5 5 4 5 6 6 5 4 3 3 3 3 3 3 3 3 3 2 2 2 2 3 2 2 2 2 2 1 1 1
1 0 1 1 1 1 1 1 2 2 2 3 3 3 3 3 3 5 6 6 6 5 5 5 6 6 5 5 5 4 3 3 3 3 4 4 3 3 3 3 3 3 2 2 2 2 2 2 1
1 0 0 0 0 1 1 2 2 2 3 3 2 2 3 3 4 6 8 9 8 7 5 5 6 8 9 9 7 6 5 4 4 4 4 4 4 4 4 4 5 4 3 2 2 2 2 2 2
1 0 0 0 0 0 1 2 3 3 2 2 2 2 3 4 5 7 9 10 10 8 7 8 9 11 12 12 10 8 6 5 5 5 5 5 5 5 5 5 6 5 4 3 2 2 2 2 2
0 0 0 0 0 1 1 2 2 2 2 2 3 4 5 4 5 7 8 9 9 9 10 11 11 12 13 13 11 9 7 7 7 7 8 7 7 6 5 5 6 6 5 4 4 3 3 2 2
0 0 0 0 0 1 1 1 2 2 1 2 4 6 6 5 5 6 7 8 9 9 10 10 11 11 13 13 12 10 9 8 8 9 11 12 10 9 7 6 7 7 7 6 5 4 4 3 2
0 0 0 0 0 0 1 1 1 1 1 2 4 5 5 5 5 6 8 9 10 10 9 9 9 11 12 12 12 11 10 9 9 10 13 15 14 11 9 7 7 8 7 7 7 6 5 4 3
0 0 0 0 0 0 1 1 1 1 1 2 3 4 4 5 5 7 8 9 10 10 10 9 9 9 10 10 11 11 11 11 11 10 12 15 16 14 11 8 7 7 7 7 7 7 6 4 3
0 0 0 0 0 1 1 1 1 1 2 2 3 3 4 4 5 6 7 7 8 9 10 10 8 7 7 7 8 10 11 12 11 10 11 13 15 15 12 10 8 7 7 7 8 7 6 4 4
0 0 0 0 0 0 1 1 1 2 2 3 2 2 3 3 4 4 5 5 5 7 8 8 7 6 5 6 7 9 10 11 10 9 9 11 13 13 12 10 8 7 7 8 8 7 6 5 4
0 0 0 0 0 0 1 1 2 2 3 3 2 2 2 3 4 4 4 4 4 5 5 6 5 5 5 7 8 8 8 8 8 7 8 9 10 11 10 8 7 7 7 8 8 7 6 5 4
0 0 0 0 0 0 0 1 2 3 4 3 2 2 2 3 4 4 3 3 4 4 5 5 4 4 5 7 9 8 7 6 6 6 6 7 7 8 7 6 6 6 6 7 6 6 6 5 4
0 0 0 0 0 0 0 1 2 3 3 3 3 2 2 3 4 4 3 3 4 5 5 4 4 4 5 6 7 7 7 6 6 6 6 6 6 6 5 5 5 5 5 5 5 5 6 5 4
0 1 0 0 0 0 0 1 2 2 2 2 2 2 3 3 4 4 4 4 4 4 3 3 4 5 6 6 6 6 6 6 6 5 5 5 5 5 5 5 5 5 5 4 4 4 4 4 4
0 0 1 0 0 0 1 1 1 2 2 2 2 2 2 3 4 4 4 4 4 3 3 3 4 5 6 6 6 6 6 6 6 5 6 6 6 6 7 6 6 5 4 4 3 3 3 4 3
0 0 0 0 0 0 0 1 1 1 1 1 1 2 2 2 3 3 3 3 3 3 3 3 4 5 6 6 6 7 7 7 6 6 7 7 7 8 8 8 6 5 4 3 3 3 3 3 3
0 0 0 0 0 0 0 1 1 1 1 1 1 1 2 2 2 2 2 2 2 3 3 4 5 6 7 7 6 7 8 8 7 8 8 9 8 9 9 9 7 5 4 3 3 3 3 3 3
0 0 0 0 0 0 0 1 1 1 1 1 1 1 2 2 2 2 2 2 3 3 4 4 6 8 8 7 6 6 7 8 8 8 9 10 10 11 11 9 7 5 4 3 3 3 2 2 2
0 0 0 0 0 0 0 0 1 1 2 2 2 2 2 2 2 2 2 2 3 3 4 4 6 8 8 6 5 6 8 9 9 10 11 11 12 13 12 10 7 5 4 4 3 3 2 2 2
0 0 0 1 1 0 0 0 1 2 2 2 2 2 2 2 2 2 2 2 2 3 4 4 5 6 6 5 5 7 9 10 11 11 11 12 13 13 12 10 8 6 4 4 3 3 2 2 2

GEFSSGP_con_maxscp_222.txt.gz
SCP
0 0 0 0 0 0 0 0 0 0 1 1 2 2 2 2 2 1 1 1 2 2 2 3 3 3 2 2 2 2 2 2 1 1 1 1 1 1 1 1 1 1 1 1 1 1 1 1 1
0 0 0 0 0 0 0 0 0 1 1 2 2 2 3 2 2 1 1 1 2 2 2 3 4 3 3 2 2 2 2 2 1 1 1 1 1 1 1 1 1 1 1 1 1 1 1 1 1
0 0 0 0 0 0 0 0 1 2 2 2 2 2 2 2 2 2 2 2 2 2 3 3 4 4 3 3 3 2 2 2 2 1 1 1 1 2 2 2 2 1 1 1 1 1 1 1 1
0 0 0 0 0 0 0 1 1 2 2 2 2 2 2 2 2 2 3 2 2 2 3 3 4 4 3 3 3 2 2 2 2 2 2 1 2 2 2 2 2 2 1 1 1 1 1 1 1
0 0 0 0 0 0 0 1 2 2 2 2 2 3 2 2 2 3 3 3 2 2 3 3 4 4 3 3 3 3 2 2 2 2 2 2 2 3 3 3 2 2 1 1 1 1 1 1 1
0 0 0 0 0 0 1 1 2 2 3 3 3 3 3 2 3 4 4 3 3 3 3 3 4 4 4 3 3 3 3 2 2 2 2 2 3 3 3 3 2 2 1 1 1 1 0 0 1
0 0 0 0 0 0 1 1 2 3 3 3 3 3 3 3 4 4 4 4 4 3 3 4 4 4 4 4 3 3 3 2 2 2 2 2 3 3 2 2 2 2 1 1 1 1 1 1 1
0 0 0 0 0 0 1 2 3 4 4 3 3 3 3 4 4 5 5 4 4 4 3 4 4 5 5 4 4 3 3 2 2 2 2 2 2 2 2 1 2 2 2 1 1 1 1 1 1
0 0 0 0 0 0 1 3 5 5 5 3 3 4 5 5 5 5 5 4 4 4 4 4 4 5 6 5 4 4 3 3 2 2 2 2 2 2 1 1 1 2 2 2 2 1 1 1 1
0 0 0 0 0 1 2 3 5 5 5 3 3 3 4 5 5 5 5 5 5 5 6 4 4 5 6 5 5 4 4 3 3 3 3 3 3 2 2 2 2 2 1 1 1 1 1 1 1
0 0 0 0 1 1 2 3 4 5 4 3 2 2 3 5 5 5 4 5 5 6 7 5 4 4 5 5 5 5 5 4 3 3 3 3 3 3 2 2 2 2 2 1 1 1 1 1 1
0 0 0 0 0 1 1 3 4 4 3 3 2 3 4 4 5 4 4 4 5 6 7 6 4 4 4 5 5 4 4 4 4 3 3 4 4 4 3 3 3 2 2 2 1 1 1 1 1
0 0 0 0 0 1 1 3 3 3 3 4 4 4 4 4 4 3 3 4 5 6 7 7 5 4 4 4 5 4 4 4 3 3 3 4 4 4 3 3 3 3 3 2 2 1 1 1 1
0 0 0 0 0 1 1 2 2 2 3 5 5 5 5 5 5 4 4 4 5 6 7 7 6 5 5 4 4 4 4 3 3 3 3 3 4 4 3 3 3 3 3 3 2 1 1 1 1
0 0 1 1 0 0 1 1 2 2 3 4 6 6 7 7 7 6 6 6 6 7 7 7 6 5 5 5 4 4 4 3 3 3 3 3 3 4 5 4 3 3 3 3 2 2 1 1 1
0 0 1 0 0 0 1 1 1 1 2 4 6 8 9 8 7 6 6 7 8 9 8 7 7 6 6 5 5 4 4 3 3 4 5 4 5 6 7 6 4 3 4 3 3 2 2 1 1
0 0 0 0 0 0 0 0 0 1 2 4 7 9 9 7 5 4 4 6 7 8 9 9 8 7 7 6 6 6 6 4 4 5 6 6 6 7 7 6 4 4 5 4 3 3 2 1 1
0 0 0 0 0 0 0 0 1 1 3 5 7 8 6 4 3 3 3 4 5 6 7 7 7 6 6 5 6 6 6 4 4 5 6 6 6 5 5 4 4 4 5 5 4 3 2 2 2
0 0 0 0 0 0 1 1 1 1 3 5 6 6 4 2 2 3 4 4 4 4 4 5 4 4 4 4 5 5 4 4 3 4 4 4 4 3 3 3 4 4 4 4 4 3 3 2 2
0 0 0 0 0 1 1 1 1 1 2 3 4 4 3 2 2 3 4 4 4 3 3 3 3 2 2 3 4 3 3 3 3 3 3 3 3 3 4 3 3 3 2 3 3 3 3 3 2
0 0 0 0 0 1 1 1 1 1 1 2 4 4 3 2 2 3 4 3 3 3 2 2 2 2 2 3 4 3 3 2 2 2 2 2 3 3 4 3 2 2 1 1 2 2 3 3 2
0 0 0 0 0 0 0 0 0 1 1 2 3 3 3 2 3 3 3 3 2 2 2 2 1 1 2 3 3 3 2 2 2 2 2 2 2 2 3 3 2 2 2 1 1 2 3 3 3
0 0 0 0 0 0 0 0 0 1 1 2 2 3 2 2 3 3 3 2 2 2 2 2 1 1 1 2 2 2 2 2 2 2 2 2 2 2 2 2 2 2 2 2 2 2 2 3 3
0 0 0 0 0 0 0 0 0 1 1 1 1 2 2 2 2 3 3 3 3 3 2 2 1 1 2 2 2 2 2 2 2 2 2 2 2 2 2 2 3 3 3 3 2 2 2 2 3
0 0 0 0 0 0 0 0 1 1 1 1 1 2 2 1 1 2 2 2 2 2 2 2 2 2 2 3 3 2 2 2 2 2 2 2 2 2 2 2 3 4 4 3 3 2 2 2 2
0 0 0 0 0 0 0 0 1 1 1 1 1 1 1 1 1 1 1 2 1 1 1 1 2 2 3 3 3 3 3 3 3 3 2 2 2 2 2 3 4 5 5 4 4 3 3 2 2
0 0 0 0 0 0 0 0 1 1 0 0 1 1 1 1 1 1 1 1 1 1 1 1 2 3 3 4 4 4 4 4 4 4 4 3 3 3 3 3 4 5 6 5 4 3 2 2 2
0 0 0 0 0 0 0 0 0 0 0 0 1 1 1 1 1 1 1 1 1 1 1 1 2 2 3 3 3 4 4 5 5 5 4 3 3 3 4 4 4 5 5 4 3 2 2 1 1
0 0 0 0 0 0 0 0 1 1 1 1 0 1 1 1 1 0 0 0 1 1 1 1 2 2 2 3 3 3 3 4 4 4 4 3 2 3 4 4 4 5 4 3 2 2 1 1 1
0 0 0 0 0 0 0 0 1 1 1 1 0 0 1 1 1 0 0 0 0 1 1 1 2 2 2 2 3 2 3 4 4 3 3 3 2 2 4 4 4 4 3 2 2 1 1 1 1

GEFSSGP_con_maxscp_228.txt.gz
SCP
0 0 0 0 0 0 0 0 0 0 0 1 1 1 1 1 1 1 1 1 1 2 3 5 5 4 4 4 3 3 3 3 3 3 3 2 2 2 2 2 2 2 2 2 2 2 2 2 2
0 0 0 0 0 0 0 0 0 0 1 1 1 1 1 1 1 1 1 1 1 2 3 4 4 4 4 4 4 3 3 3 3 3 3 3 2 2 2 2 2 2 2 2 2 2 2 1 1
0 0 0 0 0 0 0 0 0 1 1 1 1 1 1 1 1 1 1 1 2 2 3 4 4 4 4 4 4 4 3 3 3 3 3 3 3 3 2 2 3 3 3 2 2 1 1 1 1
0 0 0 0 0 0 0 0 1 1 1 1 1 1 1 1 1 1 1 1 2 2 2 3 4 4 4 4 4 4 4 3 3 3 3 4 3 3 2 2 2 2 2 2 1 1 1 1 1
0 0 0 0 0 0 0 0 1 2 2 2 1 1 1 1 1 1 1 1 2 2 2 3 4 4 4 4 4 4 4 4 4 4 4 4 3 3 2 2 2 2 2 1 1 1 1 1 1
0 0 0 0 0 0 0 1 1 2 2 2 2 2 2 1 1 1 2 2 2 2 3 3 4 4 4 4 4 4 4 4 4 4 4 4 3 3 3 2 2 2 1 1 1 1 1 1 1
0 0 0 0 0 0 0 1 1 2 2 2 2 2 2 2 2 2 2 2 2 2 3 4 4 4 4 4 4 4 4 4 4 4 4 3 3 3 3 3 2 1 1 1 1 1 1 1 1
0 0 0 0 0 0 0 1 1 2 2 2 2 2 2 3 3 3 3 3 2 2 3 4 4 4 4 4 4 4 4 3 3 3 3 3 3 3 3 3 2 1 1 2 2 2 2 2 2
0 0 0 0 0 0 0 1 2 2 2 2 2 2 3 4 4 5 4 3 3 2 3 3 4 4 5 5 4 4 4 4 4 4 4 4 3 3 4 3 2 2 1 1 2 2 2 2 2
0 0 0 0 0 0 1 1 2 2 2 3 2 2 3 4 6 6 5 4 3 3 3 3 3 4 5 5 5 4 4 5 5 5 5 4 4 4 4 3 3 2 2 1 1 1 1 2 2
0 0 0 0 0 1 1 1 1 2 2 2 2 2 3 5 6 6 5 4 3 3 3 3 3 4 5 5 6 5 5 5 5 5 5 4 4 4 4 4 3 3 2 2 2 2 2 2 2
0 0 0 0 1 1 1 1 1 2 2 2 2 2 3 4 5 5 4 4 3 3 3 3 3 3 4 5 5 5 5 5 4 4 4 5 5 5 5 5 5 4 3 3 3 2 2 2 2
0 0 0 0 1 1 1 1 1 1 2 2 2 2 3 3 3 3 3 3 3 3 3 3 3 3 4 4 5 5 5 4 4 4 4 4 5 5 5 5 5 5 5 4 3 3 2 2 3
0 0 0 0 0 1 1 1 1 2 2 2 2 2 2 2 3 3 3 3 3 3 3 3 3 3 3 3 4 4 5 5 4 4 4 4 4 4 4 4 5 6 6 5 4 3 2 2 2
0 0 0 0 0 1 1 1 1 1 2 2 2 2 3 3 3 3 3 3 3 3 3 4 3 3 3 3 4 4 5 5 4 4 4 4 4 4 4 4 5 6 6 5 4 3 3 2 2
0 0 0 0 0 1 1 1 1 1 2 2 2 3 3 3 2 2 2 3 3 3 3 4 4 3 3 3 4 4 4 4 4 4 4 4 4 3 3 4 4 6 6 5 4 3 3 3 2
0 0 0 0 0 1 1 1 1 1 2 3 3 3 3 2 1 1 1 2 2 2 3 3 4 3 3 4 4 4 3 3 3 3 3 4 4 3 3 3 4 5 6 5 4 4 3 3 3
0 0 0 0 0 1 1 1 1 1 2 2 2 2 2 1 1 1 1 1 2 2 2 3 3 3 4 4 4 4 3 2 2 2 3 3 3 3 3 3 4 4 5 5 5 4 3 3 3
0 0 0 0 1 1 1 1 1 1 2 2 1 1 1 1 0 1 1 1 1 2 2 2 2 3 3 3 3 3 2 2 2 2 2 2 2 2 2 2 3 4 4 5 5 4 3 3 3
0 0 0 1 1 1 1 1 1 1 1 1 1 1 1 1 1 1 2 2 1 2 2 2 2 2 2 2 2 2 2 2 2 2 2 2 1 1 1 2 2 3 4 4 5 5 4 3 3
0 0 0 1 1 1 1 1 1 1 1 1 1 1 1 1 1 2 2 2 2 2 2 2 2 2 2 2 1 1 2 2 2 2 2 1 1 1 1 1 1 2 2 3 4 5 5 4 3
0 0 0 1 1 1 0 1 1 1 1 1 1 1 1 1 2 2 3 2 2 2 2 2 2 2 2 1 1 1 1 2 2 2 2 2 1 1 1 1 1 1 1 2 3 4 5 5 4
0 0 0 0 0 0 0 0 1 1 1 1 1 1 1 1 1 2 2 2 2 2 2 2 2 1 1 1 1 1 1 1 2 2 2 1 1 1 1 1 1 1 1 1 1 2 3 4 4
0 0 0 0 0 0 0 0 0 1 1 1 0 1 1 1 1 1 1 2 2 2 2 1 1 1 1 1 1 1 1 1 2 2 2 1 1 1 0 0 1 1 1 1 1 1 2 3 3
0 0 0 0 0 0 0 0 0 0 0 0 0 0 0 1 1 1 1 1 2 2 1 1 1 1 0 1 1 1 1 1 2 2 1 1 1 1 0 0 0 1 1 1 2 2 2 2 2
0 0 0 0 0 0 0 0 0 0 0 0 0 0 0 0 0 1 1 1 1 1 1 1 1 1 0 1 1 1 1 1 1 1 1 1 1 1 1 0 1 1 1 1 2 2 2 2 2
0 0 0 0 0 0 0 0 1 0 0 0 0 0 0 0 0 1 1 1 1 1 1 1 1 1 1 1 1 1 1 1 1 1 1 1 1 1 1 1 1 1 1 1 1 2 2 2 2
0 0 0 0 0 0 0 0 1 1 0 0 0 0 0 0 0 0 0 0 0 0 0 0 0 0 0 1 1 1 1 1 1 1 1 1 1 1 1 2 1 1 1 1 1 1 2 2 2
0 0 0 0 0 0 0 0 0 0 0 0 0 0 0 0 0 0 0 0 0 0 0 0 0 0 0 0 1 1 1 1 1 1 1 1 1 1 2 2 1 1 1 1 1 1 2 2 2
0 0 0 0 0 0 0 0 0 0 0 0 0 0 0 0 1 0 0 0 0 0 0 0 0 0 0 0 1 1 1 1 1 1 1 1 1 1 2 2 1 1 1 1 1 1 2 2 3

GEFSSGP_con_maxscp_234.txt.gz
SCP
0 0 0 0 0 0 0 1 1 1 1 1 1 1 1 1 1 1 2 2 2 2 3 4 4 4 3 3 3 2 2 2 2 3 2 2 2 2 2 2 2 2 2 1 1 1 1 1 1
0 0 0 0 0 0 1 1 1 1 1 1 1 1 1 1 1 1 2 2 2 2 3 4 4 4 3 3 3 2 2 2 2 3 3 2 2 2 2 2 2 2 2 1 1 1 1 1 1
0 0 0 0 0 0 1 1 1 1 1 1 1 1 1 1 1 1 2 2 2 2 3 4 4 3 3 3 3 2 2 2 2 3 3 3 2 2 2 2 2 2 2 1 1 1 1 1 1
0 0 0 0 0 1 1 1 1 1 1 1 1 1 1 2 2 1 1 1 1 2 2 3 4 3 3 3 3 2 2 2 2 2 3 3 3 2 2 2 2 2 2 1 1 1 1 1 1
0 0 0 0 1 1 1 1 1 1 1 1 1 1 2 2 2 1 1 1 1 1 2 3 3 3 3 3 3 2 2 2 2 2 3 3 3 3 2 2 2 2 2 2 2 2 1 1 1
0 0 0 0 1 1 1 1 1 1 1 1 1 1 2 2 2 1 1 1 1 1 1 2 3 3 3 3 3 3 3 2 2 3 3 3 3 3 3 3 2 2 2 2 2 2 2 2 1
0 0 0 0 0 1 1 1 1 1 1 1 1 1 2 2 1 1 1 1 1 1 1 2 2 3 3 4 4 4 3 3 3 3 3 3 3 3 3 3 3 2 2 2 2 2 2 2 2
0 0 0 0 0 1 1 1 1 1 1 1 2 2 2 2 2 1 1 1 2 2 2 2 2 2 3 3 4 4 4 3 3 3 2 2 2 2 2 2 2 2 2 2 2 2 2 3 3
1 0 0 0 0 0 0 1 1 1 1 2 2 2 2 2 2 2 2 2 3 3 2 2 2 2 2 2 3 4 4 3 3 3 2 2 2 2 2 2 2 2 2 2 2 2 2 2 2
0 0 0 0 0 0 1 1 1 2 2 2 3 3 3 3 3 3 3 3 3 3 3 2 2 2 2 2 3 3 3 3 3 3 3 3 2 2 2 2 3 3 2 2 2 2 2 2 1
0 0 0 0 0 0 1 1 2 3 3 2 3 3 3 3 3 3 3 3 3 3 3 3 3 3 3 3 3 3 3 3 3 3 4 3 3 3 3 3 3 3 2 2 2 2 2 2 1
0 0 0 0 0 1 1 2 2 3 3 2 2 3 3 3 3 3 3 3 3 3 3 3 4 4 4 3 3 3 3 4 4 5 5 5 4 4 4 3 3 3 3 3 3 3 3 2 1
0 0 0 0 0 1 1 1 2 2 2 2 2 2 2 3 3 3 3 3 3 4 4 4 4 5 5 4 4 3 3 4 5 5 6 6 5 5 4 4 4 4 4 4 3 3 3 2 1
0 0 0 0 0 1 1 1 2 2 2 2 2 2 2 2 3 3 3 3 4 4 4 4 4 5 5 5 4 3 3 4 5 5 6 6 6 6 6 5 4 4 4 4 4 3 2 2 2
0 0 0 0 0 1 1 1 1 2 2 2 2 3 2 3 3 3 3 3 4 4 4 4 4 4 4 5 4 4 4 4 4 4 5 5 6 6 6 6 5 5 5 5 4 3 3 3 3
0 0 0 0 0 1 1 1 1 1 1 2 2 3 3 3 3 3 3 3 3 4 4 4 4 4 4 5 5 4 4 4 4 4 4 5 5 6 6 6 6 5 5 4 4 3 3 3 3
0 0 0 0 0 1 1 1 1 1 1 1 2 2 2 3 3 3 3 3 3 3 4 4 4 4 4 5 6 6 5 5 5 5 5 5 5 6 6 6 5 5 4 4 3 3 3 4 4
0 0 0 1 1 1 1 1 1 1 1 1 1 2 2 2 2 2 2 3 3 3 4 4 4 4 5 6 6 7 6 6 6 5 5 5 5 5 5 5 5 4 4 3 4 3 3 3 4
0 0 0 1 1 1 1 1 1 1 1 1 1 1 1 2 2 2 3 3 3 4 4 4 4 5 6 6 7 7 7 7 6 6 5 4 4 4 4 4 4 4 3 3 3 4 3 3 3
0 0 1 1 1 1 1 2 1 1 1 1 1 1 1 2 2 3 3 3 3 4 3 3 3 4 5 6 6 6 6 6 5 5 4 3 3 3 3 4 4 4 3 3 3 3 3 3 4
0 0 0 0 1 1 1 2 2 1 1 2 2 2 2 2 2 3 3 3 3 3 3 3 3 4 4 4 4 4 4 4 4 4 3 3 3 3 3 3 3 3 3 3 3 3 3 3 3
0 0 0 0 0 0 1 1 2 2 2 2 2 2 2 1 2 2 3 3 2 3 3 3 3 3 4 3 3 3 3 3 3 3 3 3 4 4 3 3 3 3 3 3 3 3 3 3 3
0 0 0 0 0 0 0 1 1 2 2 3 3 2 1 1 1 2 3 3 3 3 3 4 4 4 3 3 3 3 3 3 3 3 4 4 5 4 4 3 3 3 3 3 3 3 3 3 3
0 0 0 0 0 0 0 1 1 2 2 3 3 2 1 1 1 2 2 3 3 3 4 4 4 4 3 3 3 3 3 3 3 3 4 5 6 5 5 4 4 3 3 3 3 3 3 3 3
0 0 0 0 0 0 0 0 1 2 2 2 2 1 1 1 1 1 2 2 3 3 4 4 4 3 3 3 3 3 3 3 3 3 4 4 6 6 5 4 4 4 3 3 3 3 3 3 3
0 0 0 0 0 0 0 1 1 1 1 1 1 1 1 1 1 1 2 2 2 3 4 4 3 3 2 2 2 3 3 3 3 3 3 4 4 4 4 4 4 4 3 3 3 3 3 3 3
0 0 0 0 0 0 1 1 1 1 1 1 1 1 1 1 1 1 1 2 3 3 3 3 2 2 2 2 2 2 3 3 3 3 3 3 3 3 2 3 3 3 3 3 3 4 4 3 3
0 0 0 0 0 0 1 1 1 1 1 1 1 1 1 1 1 1 2 2 2 3 3 2 2 2 2 2 2 2 2 2 3 3 2 2 2 2 2 2 3 3 2 3 3 4 4 3 3
0 0 0 0 0 0 1 1 1 1 1 1 1 1 1 1 1 1 2 2 2 2 2 2 2 2 2 2 2 2 2 2 2 2 2 2 2 2 2 2 2 2 2 3 3 3 3 3 3
0 0 0 0 0 0 1 1 0 0 1 1 1 1 1 1 1 1 1 1 1 2 2 2 2 2 1 1 2 2 2 2 2 2 2 2 2 2 2 2 2 2 2 2 2 2 2 3 3

GEFSSGP_con_maxscp_240.txt.gz
SCP
0 0 0 0 1 1 0 0 0 1 1 2 2 2 2 2 2 2 2 2 2 2 2 2 3 3 3 3 3 3 3 2 2 2 2 2 2 3 3 2 2 2 2 1 1 1 1 1 1
0 0 0 0 0 0 1 1 1 1 2 2 2 2 2 2 2 2 2 2 3 2 2 2 3 2 2 3 3 3 3 2 2 2 2 2 3 3 3 3 3 2 2 1 1 1 1 1 1
0 0 0 0 0 0 1 2 2 2 2 2 2 1 1 2 2 2 2 2 3 2 2 2 3 2 2 2 3 3 3 3 3 3 3 3 3 4 4 3 3 2 2 2 1 1 1 1 1
0 0 0 0 0 1 1 2 2 1 1 2 2 1 2 2 2 2 2 3 3 3 2 2 3 3 2 2 2 3 3 3 3 3 3 3 4 4 4 4 3 3 2 2 1 1 1 1 1
0 0 0 0 1 1 2 2 2 1 1 2 2 2 2 3 2 2 3 3 4 3 3 3 3 3 3 2 2 2 3 3 3 3 4 4 4 4 4 4 3 3 3 2 2 2 2 2 2
0 0 0 0 1 2 2 2 1 1 1 2 2 2 2 2 2 2 3 4 4 4 4 3 3 3 3 3 3 3 3 3 3 3 4 4 4 4 3 3 3 3 3 3 3 2 2 2 2
0 0 0 0 1 2 2 2 2 2 2 2 3 2 2 2 2 3 4 5 5 5 5 4 4 3 3 3 3 3 3 3 3 3 4 4 4 3 3 3 4 4 4 4 3 3 3 3 3
0 0 0 0 1 2 2 2 2 2 2 2 2 2 2 2 3 3 5 5 5 5 5 5 5 4 4 3 3 3 4 3 3 3 4 4 4 4 4 4 4 5 5 5 5 4 4 3 3
0 0 0 1 1 1 1 1 2 3 3 3 3 3 3 3 4 4 5 5 5 5 5 6 6 5 4 4 4 4 4 4 4 4 4 4 4 4 4 4 4 5 5 6 5 5 4 4 3
1 0 0 1 1 1 1 1 2 2 3 4 4 3 3 4 4 4 4 4 4 4 5 5 5 5 5 5 4 4 4 4 4 4 4 5 5 4 4 4 4 4 5 5 5 4 4 3 3
0 0 0 1 1 1 1 2 2 2 3 4 4 3 3 3 3 3 4 4 5 4 4 4 4 5 5 5 5 4 4 5 5 5 5 5 5 4 3 3 3 4 4 4 4 4 3 3 2
0 0 0 0 1 1 2 2 2 2 3 4 4 4 4 4 3 3 4 6 7 7 6 6 6 7 7 6 6 5 4 5 5 6 6 5 5 4 3 3 3 3 4 4 4 4 3 3 2
0 0 0 1 1 2 2 2 2 2 3 4 4 4 4 4 4 5 7 9 10 9 8 7 8 8 7 7 6 5 4 4 4 5 6 6 5 5 4 4 4 4 4 5 4 4 4 3 3
0 0 0 1 1 1 2 1 1 2 3 4 4 3 3 4 5 7 10 11 11 9 8 8 8 7 7 6 6 5 4 4 4 5 6 6 6 5 5 5 4 4 4 5 5 4 4 3 3
0 0 0 1 1 1 1 1 1 2 2 3 3 3 3 3 4 5 8 9 9 8 8 9 8 7 6 6 6 5 5 4 5 5 6 6 6 6 6 6 5 4 4 5 5 5 4 3 3
0 0 0 0 0 0 1 1 1 2 2 2 2 2 2 3 3 4 5 7 7 7 8 9 9 9 7 6 5 5 4 5 5 6 7 7 7 6 6 5 5 5 5 5 5 4 3 2 2
0 0 1 0 0 1 1 1 1 2 2 2 2 2 2 3 3 4 4 7 8 9 8 9 11 10 8 6 5 4 4 4 5 6 7 7 7 7 6 5 5 6 6 6 4 3 2 2 2
0 0 1 1 1 1 1 1 2 2 1 1 1 2 2 3 4 4 5 8 10 10 9 10 12 11 9 6 5 5 5 5 5 6 6 7 8 7 6 6 5 5 6 5 4 3 2 2 2
0 0 1 1 1 1 1 1 1 2 1 1 1 2 2 4 5 5 8 11 12 11 10 10 10 9 8 7 6 5 5 5 6 6 6 7 8 8 7 6 5 5 5 4 4 3 2 2 2
0 0 0 1 1 1 1 1 2 2 2 2 2 2 3 4 5 6 10 14 13 11 10 8 8 7 7 6 6 5 5 5 6 6 6 6 7 7 7 7 5 4 3 3 3 3 2 2 2
0 0 0 1 1 1 1 1 2 3 3 3 2 2 3 3 4 5 9 12 11 10 9 8 7 7 6 6 6 5 5 5 5 5 5 5 5 5 5 6 5 3 3 3 3 3 2 2 2
0 0 0 0 0 1 1 1 2 3 4 3 3 3 2 2 2 4 6 7 7 8 8 8 9 8 7 6 5 4 4 4 4 4 4 4 4 3 4 4 4 3 3 2 3 3 3 2 2
0 0 0 0 0 0 1 1 2 3 3 3 3 2 2 2 2 3 4 6 7 7 8 9 10 10 8 7 5 4 4 3 3 3 3 3 3 3 3 3 3 3 3 3 3 3 3 3 2
0 0 0 0 0 0 0 1 2 3 3 3 3 3 2 2 2 3 5 7 8 8 8 9 11 11 10 8 6 5 4 3 3 3 3 3 3 4 4 3 4 4 5 5 5 5 4 4 3
0 0 0 0 0 0 0 1 2 3 3 3 3 3 2 2 2 3 4 6 8 8 8 8 10 12 10 8 7 6 5 4 4 3 3 3 3 4 3 3 4 4 5 5 5 5 4 4 3
0 0 0 0 0 1 1 2 2 3 2 2 2 2 2 2 2 2 3 4 6 8 9 8 9 10 9 8 8 8 7 5 4 3 3 3 3 3 3 4 4 4 5 5 4 4 4 3 3
0 0 0 0 0 1 1 2 3 3 2 2 2 2 2 1 2 2 2 4 5 8 9 8 8 8 8 8 8 8 7 5 4 4 3 3 4 4 4 4 5 5 5 4 3 3 3 3 3
0 0 0 0 1 1 1 2 3 3 2 2 2 2 2 1 2 2 3 3 4 6 7 7 8 9 9 8 7 6 6 6 6 4 3 3 3 3 4 4 4 4 4 3 3 3 2 2 2
0 0 0 1 1 1 1 2 2 2 2 2 2 2 2 2 2 3 2 3 4 4 4 6 10 12 11 9 7 6 5 6 7 5 3 3 3 3 3 3 3 3 3 2 2 2 2 1 1
0 0 0 1 1 1 1 1 2 2 2 2 2 2 2 2 2 2 2 2 3 3 3 6 11 13 11 9 8 6 6 6 6 5 3 3 3 3 3 3 3 3 2 2 2 2 1 1 1

GEFSSGP_con_maxscp_246.txt.gz
SCP
0 0 0 0 0 0 0 0 0 0 1 1 1 2 2 1 1 1 1 1 1 1 2 2 2 3 3 3 3 3 2 2 2 1 1 2 2 2 2 2 2 1 1 1 1 1 1 1 1
0 0 0 0 0 0 0 0 0 1 1 1 2 2 2 1 1 1 1 1 1 2 2 2 2 2 3 3 3 3 2 2 2 2 1 2 2 2 2 2 2 1 1 1 1 1 1 1 1
0 0 0 0 0 0 0 0 1 1 1 1 1 2 2 1 1 1 2 2 2 2 2 2 2 2 3 3 2 2 2 2 2 2 2 2 2 2 2 2 2 1 1 1 1 1 1 1 1
0 0 0 0 0 0 0 0 1 1 1 1 2 2 2 1 1 1 2 2 2 2 2 2 2 2 3 3 2 2 2 2 2 2 2 2 2 2 2 2 2 2 2 1 1 1 1 1 1
0 0 0 0 0 0 0 1 1 1 1 2 2 2 2 2 2 2 2 2 2 2 2 3 2 2 3 3 2 2 2 2 2 2 2 2 2 2 2 2 2 2 2 1 1 1 1 1 1
0 0 0 0 0 0 0 1 1 1 2 2 2 2 2 2 2 2 2 2 2 2 3 3 3 3 3 3 3 2 3 3 3 2 2 2 2 2 2 2 2 2 2 1 1 1 1 1 1
0 0 0 0 0 0 1 1 1 1 2 2 3 2 2 3 3 3 3 3 3 3 4 4 3 3 3 3 3 3 3 3 3 2 2 2 2 2 2 2 2 2 2 2 1 1 1 1 1
0 0 0 0 0 1 1 1 1 1 3 3 3 2 2 3 4 5 6 7 6 6 5 5 4 4 3 3 4 3 3 3 2 2 2 2 2 3 3 3 3 3 2 2 2 2 1 1 1
0 0 0 0 0 1 1 1 1 1 3 4 4 3 3 3 6 8 10 11 10 8 7 6 6 5 4 4 4 4 4 3 2 2 2 2 2 3 3 3 3 3 3 2 2 2 2 2 2
0 0 0 0 1 1 2 1 1 2 3 4 4 4 4 5 6 9 11 11 10 9 7 6 6 5 5 5 5 5 4 3 3 2 2 2 2 2 3 3 3 3 3 3 2 2 2 2 2
0 0 0 1 1 2 2 2 1 2 3 3 3 4 5 5 6 7 8 8 8 8 7 5 5 5 6 7 6 5 3 3 3 2 2 2 2 2 2 3 3 3 3 3 3 3 3 3 3
0 0 0 1 1 2 2 2 2 2 2 3 3 4 5 5 6 7 7 7 8 8 7 4 4 5 7 8 7 5 3 2 2 2 2 2 2 2 2 2 2 2 3 3 3 3 3 3 3
0 0 1 1 1 1 1 1 1 2 2 3 4 5 5 6 6 7 8 8 9 8 5 3 4 5 7 7 6 5 3 2 2 2 2 2 2 2 2 2 2 2 2 2 3 3 3 3 3
1 1 1 1 1 1 1 1 1 2 3 4 4 5 6 6 7 8 8 8 8 7 4 3 4 5 5 4 4 4 3 2 2 2 2 2 2 2 2 2 2 1 1 1 2 2 2 2 2
1 1 1 0 0 1 1 1 1 2 3 4 5 5 6 6 7 7 7 7 7 6 3 3 4 5 4 3 2 2 2 2 2 2 2 2 2 2 2 2 2 2 1 1 1 1 1 1 1
0 0 0 0 0 0 1 1 1 2 3 4 5 5 5 5 5 5 5 6 6 5 3 3 5 5 4 3 3 3 2 2 2 3 3 3 3 2 2 2 2 2 2 1 1 1 1 1 1
0 0 0 0 0 1 1 1 2 3 4 5 5 5 5 4 4 3 4 6 8 7 4 3 4 4 4 4 4 3 2 2 3 3 3 3 3 3 3 2 2 2 2 1 1 1 1 1 0
0 0 0 0 1 1 1 1 1 3 4 5 5 4 4 3 3 2 3 5 8 8 5 2 3 4 4 4 3 3 2 2 2 3 3 3 4 4 3 3 2 2 2 2 2 1 1 1 1
0 0 0 1 1 1 1 1 1 2 3 4 4 4 3 2 2 2 2 3 5 5 4 3 3 4 4 4 3 2 2 2 2 2 2 3 3 3 3 3 2 2 2 2 1 1 1 1 1
0 0 0 1 1 1 1 1 1 2 3 4 4 3 2 2 1 1 2 3 3 4 5 6 5 4 5 4 4 3 2 2 1 1 1 2 2 3 3 2 2 2 2 2 1 1 1 1 1
0 0 0 1 1 1 1 1 1 2 3 4 4 3 2 1 1 3 7 9 7 7 12 14 9 5 5 5 4 3 2 1 1 1 1 1 1 2 2 2 2 2 2 2 1 1 1 1 1
0 0 0 1 1 1 1 1 1 2 4 4 4 3 2 2 2 6 15 21 17 13 17 17 10 6 6 6 4 3 2 1 1 1 1 1 1 1 1 2 2 2 2 2 1 1 1 1 1
0 0 0 0 0 0 0 1 1 2 4 4 3 2 2 2 4 8 17 25 23 16 13 12 10 7 7 6 4 3 2 2 1 1 1 1 1 1 1 1 2 2 2 2 1 1 1 1 1
0 0 0 0 0 0 0 0 1 2 3 3 3 2 2 3 4 7 11 18 20 15 10 10 11 8 6 5 4 3 3 2 2 1 1 1 1 1 1 1 2 2 2 2 2 1 1 1 1
0 0 0 0 0 0 0 0 1 2 3 3 3 2 2 3 4 5 7 10 13 13 12 12 11 9 7 5 4 3 2 2 2 1 1 1 1 1 1 1 1 2 2 2 2 2 1 1 1
0 0 0 0 0 0 0 1 1 3 4 4 3 3 3 3 3 4 4 6 7 9 10 10 11 10 7 5 4 3 2 1 1 1 1 1 1 0 0 0 1 1 1 1 2 2 2 1 0
0 0 0 0 0 0 0 1 2 4 4 4 4 3 3 2 2 2 3 3 4 4 5 5 7 7 5 4 3 2 1 1 1 1 1 1 0 0 0 0 1 1 1 1 1 1 1 1 0
0 0 0 0 0 0 1 1 2 3 4 4 3 3 2 2 2 2 2 2 2 2 2 2 2 3 2 2 2 1 1 1 1 1 0 0 0 0 0 0 0 1 1 1 1 1 0 0 0
0 0 0 0 0 0 0 1 2 3 3 3 3 2 2 2 2 1 1 1 1 2 2 2 2 2 1 1 1 1 1 1 1 1 0 0 0 0 0 0 0 0 0 0 0 0 0 0 0
0 0 0 0 0 0 0 0 1 3 3 3 2 2 2 2 1 1 1 1 1 1 1 2 2 2 1 1 1 1 1 1 1 1 0 0 0 0 0 0 0 0 0 0 0 0 0 0 0

GEFSSGP_con_maxscp_252.txt.gz
SCP
0 0 0 0 0 0 0 0 0 0 0 1 1 1 1 1 1 1 1 1 1 2 2 2 4 5 4 4 4 3 3 3 2 2 2 1 1 1 1 1 1 1 1 1 1 1 1 1 1
0 0 0 0 0 0 0 0 0 0 0 1 1 1 1 1 1 1 1 1 2 2 2 2 4 5 5 4 4 3 3 3 2 2 2 2 1 1 1 1 1 1 1 1 1 1 1 1 1
0 0 0 0 0 0 0 0 0 0 0 1 1 1 1 1 1 1 1 2 2 2 2 3 4 5 5 4 4 3 3 3 3 3 2 2 2 1 1 1 1 1 1 1 1 1 1 1 1
0 0 0 0 0 0 0 0 0 1 1 1 1 1 1 1 1 1 2 2 3 3 3 3 4 5 5 4 4 3 3 3 3 3 3 2 2 1 1 1 1 1 1 1 1 1 1 1 1
0 0 0 0 0 0 0 0 1 1 1 1 1 1 1 1 2 2 2 3 3 3 4 4 3 4 4 4 4 3 3 3 3 3 3 2 2 2 2 1 1 1 1 1 1 1 1 1 1
0 0 0 0 0 0 0 0 0 1 1 1 1 1 1 2 2 2 3 3 4 4 5 4 4 3 4 4 4 3 3 2 2 2 2 2 2 2 2 2 2 2 2 1 1 1 1 1 1
0 0 0 0 0 0 0 0 0 1 1 1 1 1 1 2 2 2 3 4 5 5 6 6 5 4 4 4 4 4 3 2 2 2 2 2 2 2 2 2 2 2 2 2 2 1 1 1 1
0 0 0 0 0 0 0 0 0 1 1 1 1 1 1 2 2 3 4 5 5 6 7 7 6 4 4 4 4 4 3 2 2 2 2 2 2 2 2 2 2 2 2 2 2 2 1 1 1
0 0 0 0 0 0 0 0 0 1 1 1 1 2 2 2 3 3 4 5 6 7 7 7 6 5 4 4 4 4 3 3 3 2 2 2 2 2 2 2 2 2 2 2 2 2 1 1 1
0 0 0 0 0 1 1 1 1 1 1 1 2 3 3 4 3 3 4 5 7 8 8 7 6 5 5 5 4 4 4 4 4 3 3 2 2 2 2 2 2 2 2 2 1 1 1 1 1
0 0 0 0 1 1 1 2 2 2 2 2 2 3 4 4 4 3 4 5 6 6 6 6 6 6 6 5 4 4 5 6 6 5 3 3 2 2 2 2 2 2 2 2 1 1 1 1 1
0 0 0 1 1 1 2 2 2 2 2 2 3 4 5 5 3 3 3 4 4 4 4 4 5 5 5 5 4 5 6 7 7 6 4 3 2 2 2 2 2 2 2 2 2 1 1 1 1
0 0 1 1 1 1 1 2 2 3 3 3 3 4 5 5 4 3 3 3 3 3 3 3 3 3 3 3 4 6 7 8 7 6 4 3 2 2 2 2 2 2 2 2 2 2 1 1 1
0 1 1 1 1 1 1 2 2 3 3 3 3 4 5 4 3 3 3 4 3 3 3 3 3 3 3 3 4 6 7 7 5 4 3 2 2 2 2 2 2 2 2 2 2 2 1 1 1
0 0 0 0 0 1 1 2 2 2 3 4 5 5 5 4 3 3 4 5 5 4 4 4 4 3 3 3 3 5 6 5 3 2 2 2 2 2 2 2 2 2 2 2 2 2 2 1 1
0 0 0 0 0 0 1 1 2 3 5 5 6 7 6 4 3 3 3 5 6 5 4 3 3 3 2 2 2 3 3 2 2 1 1 2 2 2 2 2 2 2 2 2 3 2 2 2 2
0 1 1 0 0 0 1 1 2 4 5 6 6 7 6 4 3 2 3 4 5 4 3 2 2 2 1 1 1 2 2 1 1 1 1 1 2 2 2 3 2 2 2 2 2 2 2 2 2
1 1 1 0 0 0 0 1 2 4 5 5 5 6 5 4 3 2 2 3 3 3 2 1 1 1 1 1 1 1 1 1 1 1 1 1 2 2 3 3 3 3 2 2 2 2 2 2 2
1 1 1 0 0 0 0 1 3 4 4 4 5 5 5 4 3 2 2 2 2 2 1 1 1 1 1 1 1 1 1 1 1 1 1 1 1 2 3 3 3 3 3 3 3 2 2 2 1
0 0 0 0 0 0 0 1 3 4 4 4 5 5 5 4 3 2 1 2 2 2 1 1 1 1 2 2 2 2 1 1 1 1 1 1 1 1 2 3 3 3 4 3 3 2 2 1 1
0 0 0 0 0 0 0 1 3 4 4 4 5 5 5 4 3 2 1 1 1 2 2 1 1 2 3 4 4 3 2 1 1 1 1 1 1 1 1 2 2 3 3 3 2 2 1 1 1
0 0 0 0 0 0 0 1 2 3 3 3 4 4 4 3 2 1 1 1 1 1 1 2 2 3 4 6 5 4 2 2 1 1 1 1 1 1 1 1 1 2 2 3 2 2 1 1 1
0 0 0 0 0 0 0 0 1 3 3 3 3 3 3 2 1 1 1 1 1 1 1 3 4 4 6 7 6 4 3 2 2 2 1 1 1 1 1 1 1 1 1 2 2 2 1 1 1
0 0 0 0 0 0 0 0 1 2 3 3 2 2 2 2 1 1 1 0 0 1 2 3 5 6 7 7 6 4 3 2 2 2 1 1 1 1 1 0 0 0 1 1 1 2 1 1 1
0 0 0 0 0 0 0 0 1 2 3 3 3 2 2 2 1 1 1 0 0 1 2 4 6 7 9 8 7 4 2 2 1 1 1 1 1 1 1 1 0 0 0 1 1 1 1 1 1
0 0 0 0 0 0 0 0 0 1 3 3 3 2 2 1 1 1 1 1 1 1 3 5 7 9 10 9 7 4 2 1 1 1 1 1 1 1 1 1 1 1 0 0 1 1 1 1 1
0 0 0 0 0 0 0 0 1 1 2 3 3 2 2 1 1 1 1 1 1 2 3 6 9 11 12 11 8 4 2 1 1 1 1 0 0 0 0 1 1 1 0 0 0 1 1 1 1
0 0 0 0 0 0 0 0 1 1 2 3 3 2 1 1 1 1 1 1 1 1 3 6 11 14 15 13 9 5 2 1 1 1 0 0 0 0 0 1 1 1 0 0 0 0 0 0 0
0 0 0 0 0 0 0 0 0 1 2 2 2 2 1 1 1 1 1 1 0 1 2 6 11 16 17 15 11 6 2 1 1 0 0 0 0 0 0 0 0 0 0 0 0 0 0 0 0
0 0 0 0 0 0 0 0 0 1 2 2 2 2 1 1 1 1 1 1 0 1 2 5 11 16 18 16 11 6 3 1 0 0 0 0 0 0 0 0 0 0 0 0 0 0 0 0 0